FW6030 Weather Reports


time (UTC)temp
C
wind
direction
speed
KPH
gust
KPH
rain 1hr
cm
rain 24hr
cm
rain mn
cm
humidity
%
barometer
mb
20260508140418 17 360 3.2 8.0 0.00 0.00 0.00 80 1014.5
20260508140319 17 360 4.8 8.0 0.00 0.00 0.00 80 1014.5
20260508140220 17 360 4.8 8.0 0.00 0.00 0.00 80 1014.4
20260508140120 17 360 4.8 8.0 0.00 0.00 0.00 80 1014.5
20260508140024 17 360 4.8 8.0 0.00 0.00 0.00 80 1014.5
20260508135925 17 360 4.8 8.0 0.00 0.00 0.00 80 1014.5
20260508135827 17 360 3.2 8.0 0.00 0.00 0.00 81 1014.5
20260508135725 17 360 3.2 6.4 0.00 0.00 0.00 81 1014.5
20260508135625 17 360 3.2 9.7 0.00 0.00 0.00 80 1014.5
20260508135526 17 101 3.2 9.7 0.00 0.00 0.00 80 1014.5
20260508135431 17 360 3.2 9.7 0.00 0.00 0.00 80 1014.4
20260508135331 17 360 3.2 9.7 0.00 0.00 0.00 80 1014.6
20260508135232 17 360 3.2 9.7 0.00 0.00 0.00 80 1014.6
20260508135132 17 360 3.2 9.7 0.00 0.00 0.00 81 1014.5
20260508135032 17 360 3.2 9.7 0.00 0.00 0.00 81 1014.6
20260508134953 17 360 4.8 9.7 0.00 0.00 0.00 80 1014.6
20260508134833 17 360 4.8 9.7 0.00 0.00 0.00 80 1014.7
20260508134717 17 360 6.4 9.7 0.00 0.00 0.00 80 1014.6
20260508134618 17 360 4.8 9.7 0.00 0.00 0.00 80 1014.6
20260508134519 17 360 4.8 9.7 0.00 0.00 0.00 80 1014.6
20260508134438 17 360 4.8 8.0 0.00 0.00 0.00 81 1014.7
20260508134318 17 65 3.2 6.4 0.00 0.00 0.00 81 1014.7
20260508134219 17 360 4.8 6.4 0.00 0.00 0.00 81 1014.7
20260508134119 17 360 4.8 6.4 0.00 0.00 0.00 81 1014.7
20260508134025 17 360 3.2 6.4 0.00 0.00 0.00 81 1014.7
20260508133925 17 360 4.8 6.4 0.00 0.00 0.00 81 1014.7
20260508133826 17 360 4.8 6.4 0.00 0.00 0.00 81 1014.7
20260508133746 17 360 4.8 6.4 0.00 0.00 0.00 81 1014.7
20260508133646 17 360 3.2 6.4 0.00 0.00 0.00 81 1014.7
20260508133545 17 360 3.2 6.4 0.00 0.00 0.00 81 1014.7
20260508133424 16 84 3.2 6.4 0.00 0.00 0.00 81 1014.6
20260508133325 16 360 1.6 6.4 0.00 0.00 0.00 81 1014.6
20260508133248 16 360 3.2 6.4 0.00 0.00 0.00 81 1014.6
20260508133149 16 360 3.2 6.4 0.00 0.00 0.00 81 1014.6
20260508133048 16 360 3.2 6.4 0.00 0.00 0.00 81 1014.7
20260508132928 16 360 3.2 6.4 0.00 0.00 0.00 81 1014.6
20260508132829 16 360 3.2 4.8 0.00 0.00 0.00 81 1014.6
20260508132730 16 65 3.2 4.8 0.00 0.00 0.00 81 1014.7
20260508132630 16 51 3.2 4.8 0.00 0.00 0.00 81 1014.8
20260508132530 16 46 3.2 4.8 0.00 0.00 0.00 81 1014.8
20260508132435 16 360 3.2 4.8 0.00 0.00 0.00 81 1014.8
20260508132316 16 360 3.2 8.0 0.00 0.00 0.00 81 1014.8
20260508132217 16 360 3.2 8.0 0.00 0.00 0.00 81 1014.8
20260508132117 16 360 3.2 8.0 0.00 0.00 0.00 81 1015.0
20260508132018 16 50 3.2 8.0 0.00 0.00 0.00 81 1014.9
20260508131918 16 50 1.6 8.0 0.00 0.00 0.00 81 1015.0
20260508131822 16 51 1.6 8.0 0.00 0.00 0.00 81 1015.0
20260508131743 16 360 1.6 8.0 0.00 0.00 0.00 81 1015.0
20260508131622 16 360 3.2 9.7 0.00 0.00 0.00 81 1014.9
20260508131542 16 49 3.2 9.7 0.00 0.00 0.00 81 1014.9
20260508131416 16 360 4.8 9.7 0.00 0.00 0.00 81 1014.8
20260508131316 16 360 4.8 9.7 0.00 0.00 0.00 81 1014.8
20260508131216 16 360 4.8 12.9 0.00 0.00 0.00 81 1014.8
20260508131121 16 360 4.8 12.9 0.00 0.00 0.00 81 1014.8
20260508131022 16 360 4.8 12.9 0.00 0.00 0.00 81 1014.7
20260508130943 16 360 6.4 12.9 0.00 0.00 0.00 81 1014.7
20260508130824 16 326 6.4 12.9 0.00 0.00 0.00 81 1014.7
20260508130723 16 360 6.4 12.9 0.00 0.00 0.00 81 1014.6
20260508130624 16 360 6.4 12.9 0.00 0.00 0.00 81 1014.6
20260508130525 16 360 4.8 9.7 0.00 0.00 0.00 81 1014.6
20260508130425 16 360 4.8 8.0 0.00 0.00 0.00 82 1014.6
20260508130329 16 360 3.2 8.0 0.00 0.00 0.00 82 1014.6
20260508130229 16 360 3.2 8.0 0.00 0.00 0.00 82 1014.6
20260508130129 16 360 3.2 9.7 0.00 0.00 0.00 82 1014.7
20260508130029 16 360 4.8 9.7 0.00 0.00 0.00 82 1014.6
20260508125931 16 360 4.8 9.7 0.00 0.00 0.00 82 1014.8
20260508125850 16 360 4.8 9.7 0.00 0.00 0.00 81 1014.7
20260508125732 16 360 6.4 9.7 0.00 0.00 0.00 81 1014.7
20260508125616 16 360 6.4 9.7 0.00 0.00 0.00 81 1014.7
20260508125516 16 360 4.8 9.7 0.00 0.00 0.00 81 1014.6
20260508125417 16 360 4.8 9.7 0.00 0.00 0.00 81 1014.7
20260508125337 16 360 3.2 9.7 0.00 0.00 0.00 81 1014.8
20260508125217 16 360 3.2 8.0 0.00 0.00 0.00 82 1014.8
20260508125137 16 360 3.2 6.4 0.00 0.00 0.00 82 1014.8
20260508125018 16 360 3.2 6.4 0.00 0.00 0.00 82 1014.9
20260508124939 16 360 3.2 6.4 0.00 0.00 0.00 82 1014.9
20260508124821 16 360 3.2 6.4 0.00 0.00 0.00 82 1014.9
20260508124722 16 360 3.2 6.4 0.00 0.00 0.00 82 1014.9
20260508124621 16 360 3.2 6.4 0.00 0.00 0.00 82 1015.0
20260508124522 16 360 3.2 6.4 0.00 0.00 0.00 82 1014.9
20260508124423 16 360 1.6 4.8 0.00 0.00 0.00 82 1014.9
20260508124322 16 360 1.6 6.4 0.00 0.00 0.00 82 1015.0
20260508124243 16 360 1.6 6.4 0.00 0.00 0.00 82 1015.0
20260508124127 16 30 1.6 6.4 0.00 0.00 0.00 82 1015.0
20260508124027 16 29 1.6 6.4 0.00 0.00 0.00 82 1015.1
20260508123927 16 29 3.2 8.0 0.00 0.00 0.00 82 1015.0
20260508123848 16 360 3.2 8.0 0.00 0.00 0.00 82 1015.0
20260508123748 16 360 3.2 8.0 0.00 0.00 0.00 82 1015.1
20260508123627 16 360 3.2 8.0 0.00 0.00 0.00 82 1015.0
20260508123528 16 360 3.2 8.0 0.00 0.00 0.00 82 1015.0
20260508123429 16 360 3.2 8.0 0.00 0.00 0.00 82 1015.0
20260508123335 16 360 4.8 8.0 0.00 0.00 0.00 82 1014.9
20260508123255 16 360 4.8 8.0 0.00 0.00 0.00 82 1014.8
20260508123135 16 360 4.8 8.0 0.00 0.00 0.00 82 1014.7
20260508123034 16 360 4.8 8.0 0.00 0.00 0.00 82 1014.8
20260508122916 16 360 4.8 8.0 0.00 0.00 0.00 82 1014.7
20260508122838 16 360 4.8 8.0 0.00 0.00 0.00 82 1014.6
20260508122717 16 360 4.8 8.0 0.00 0.00 0.00 82 1014.7
20260508122620 16 360 4.8 8.0 0.00 0.00 0.00 82 1014.7
20260508122522 16 360 4.8 8.0 0.00 0.00 0.00 82 1014.7
20260508122423 16 360 4.8 8.0 0.00 0.00 0.00 82 1014.8
20260508122323 16 360 3.2 8.0 0.00 0.00 0.00 82 1014.8
20260508122224 16 360 3.2 6.4 0.00 0.00 0.00 82 1015.0
20260508122144 16 360 3.2 6.4 0.00 0.00 0.00 82 1015.0
20260508122023 16 360 3.2 6.4 0.00 0.00 0.00 82 1015.0
20260508121928 16 360 1.6 6.4 0.00 0.00 0.00 82 1015.0
20260508121829 16 71 1.6 6.4 0.00 0.00 0.00 82 1014.8
20260508121729 16 71 1.6 6.4 0.00 0.00 0.00 82 1014.8
20260508121630 16 360 1.6 6.4 0.00 0.00 0.00 82 1014.9
20260508121530 16 360 3.2 6.4 0.00 0.00 0.00 82 1015.0
20260508121431 16 360 3.2 6.4 0.00 0.00 0.00 82 1014.9
20260508121335 16 360 1.6 8.0 0.00 0.00 0.00 82 1014.9
20260508121216 16 360 1.6 8.0 0.00 0.00 0.00 82 1015.0
20260508121116 16 360 1.6 8.0 0.00 0.00 0.00 82 1014.9
20260508121016 16 59 1.6 8.0 0.00 0.00 0.00 82 1015.0
20260508120917 16 57 3.2 8.0 0.00 0.00 0.00 82 1015.0
20260508120838 16 360 3.2 8.0 0.00 0.00 0.00 82 1015.0
20260508120716 16 360 4.8 8.0 0.00 0.00 0.00 82 1015.0
20260508120621 16 360 4.8 8.0 0.00 0.00 0.00 82 1015.1
20260508120521 16 360 4.8 8.0 0.00 0.00 0.00 83 1015.1
20260508120442 16 360 4.8 8.0 0.00 0.00 0.00 83 1015.1
20260508120321 16 360 4.8 8.0 0.00 0.00 0.00 83 1015.1
20260508120222 16 360 3.2 6.4 0.00 0.00 0.00 82 1015.1
20260508120123 16 360 3.2 6.4 0.00 0.00 0.00 82 1015.1
20260508120023 16 360 3.2 4.8 0.00 0.00 0.00 82 1015.1
20260508115928 16 360 3.2 4.8 0.00 0.00 0.00 82 1015.1
20260508115827 16 360 3.2 6.4 0.00 0.00 0.00 82 1015.1
20260508115729 16 360 3.2 6.4 0.00 0.00 0.00 82 1015.2
20260508115628 16 360 3.2 6.4 0.00 0.00 0.00 82 1015.2
20260508115528 16 360 3.2 6.4 0.00 0.00 0.00 82 1015.3
20260508115429 16 360 3.2 6.4 0.00 0.00 0.00 82 1015.3
20260508115333 16 348 3.2 6.4 0.00 0.00 0.00 82 1015.2
20260508115234 16 360 3.2 6.4 0.00 0.00 0.00 82 1015.2
20260508115154 16 360 3.2 6.4 0.00 0.00 0.00 82 1015.2
20260508115034 16 360 3.2 6.4 0.00 0.00 0.00 82 1015.3
20260508114935 16 360 3.2 6.4 0.00 0.00 0.00 82 1015.2
20260508114835 16 360 3.2 6.4 0.00 0.00 0.00 82 1015.3
20260508114735 16 360 3.2 6.4 0.00 0.00 0.00 82 1015.4
20260508114621 16 360 3.2 6.4 0.00 0.00 0.00 81 1015.3
20260508114521 16 360 3.2 6.4 0.00 0.00 0.00 81 1015.3
20260508114422 16 360 3.2 6.4 0.00 0.00 0.00 81 1015.3
20260508114322 16 360 3.2 6.4 0.00 0.00 0.00 81 1015.3
20260508114243 16 360 3.2 6.4 0.00 0.00 0.00 81 1015.3
20260508114123 16 360 3.2 6.4 0.00 0.00 0.00 81 1015.3
20260508114024 16 360 3.2 6.4 0.00 0.00 0.00 82 1015.3
20260508113927 16 360 3.2 4.8 0.00 0.00 0.00 82 1015.3
20260508113828 16 360 3.2 4.8 0.00 0.00 0.00 81 1015.3
20260508113729 16 360 1.6 4.8 0.00 0.00 0.00 81 1015.4
20260508113629 16 360 1.6 4.8 0.00 0.00 0.00 82 1015.3
20260508113530 16 360 1.6 4.8 0.00 0.00 0.00 81 1015.4
20260508113429 16 360 0.0 4.8 0.00 0.00 0.00 81 1015.4
20260508113334 16 360 0.0 3.2 0.00 0.00 0.00 81 1015.5
20260508113235 16 360 0.0 3.2 0.00 0.00 0.00 81 1015.5
20260508113136 16 360 0.0 3.2 0.00 0.00 0.00 81 1015.5
20260508113036 16 360 1.6 3.2 0.00 0.00 0.00 81 1015.5
20260508112936 16 360 1.6 3.2 0.00 0.00 0.00 81 1015.5
20260508112817 16 360 1.6 3.2 0.00 0.00 0.00 81 1015.4
20260508112717 16 360 0.0 3.2 0.00 0.00 0.00 81 1015.4
20260508112621 16 360 0.0 3.2 0.00 0.00 0.00 81 1015.4
20260508112543 16 360 0.0 3.2 0.00 0.00 0.00 81 1015.4
20260508112422 16 360 0.0 3.2 0.00 0.00 0.00 81 1015.5
20260508112323 16 360 0.0 3.2 0.00 0.00 0.00 81 1015.4
20260508112224 16 360 0.0 3.2 0.00 0.00 0.00 81 1015.4
20260508112124 16 360 0.0 3.2 0.00 0.00 0.00 81 1015.4
20260508112024 16 360 0.0 3.2 0.00 0.00 0.00 81 1015.4
20260508111929 16 360 0.0 4.8 0.00 0.00 0.00 81 1015.4
20260508111829 16 360 0.0 4.8 0.00 0.00 0.00 81 1015.4
20260508111750 16 360 0.0 4.8 0.00 0.00 0.00 81 1015.4
20260508111629 16 360 0.0 4.8 0.00 0.00 0.00 82 1015.3
20260508111529 16 360 0.0 4.8 0.00 0.00 0.00 82 1015.3
20260508111430 16 360 0.0 4.8 0.00 0.00 0.00 82 1015.4
20260508111330 16 360 0.0 4.8 0.00 0.00 0.00 82 1015.3
20260508111235 16 360 1.6 4.8 0.00 0.00 0.00 82 1015.3
20260508111135 16 360 1.6 4.8 0.00 0.00 0.00 82 1015.2
20260508111035 16 360 1.6 4.8 0.00 0.00 0.00 82 1015.2
20260508110955 16 360 1.6 4.8 0.00 0.00 0.00 82 1015.3
20260508110835 16 360 1.6 4.8 0.00 0.00 0.00 82 1015.2
20260508110737 16 360 1.6 4.8 0.00 0.00 0.00 82 1015.2
20260508110657 16 360 3.2 4.8 0.00 0.00 0.00 82 1015.3
20260508110521 16 360 1.6 4.8 0.00 0.00 0.00 82 1015.2
20260508110421 16 360 1.6 4.8 0.00 0.00 0.00 82 1015.3
20260508110321 16 360 1.6 4.8 0.00 0.00 0.00 82 1015.2
20260508110222 16 360 1.6 4.8 0.00 0.00 0.00 82 1015.2
20260508110122 16 360 0.0 4.8 0.00 0.00 0.00 82 1015.2
20260508110022 16 360 0.0 3.2 0.00 0.00 0.00 82 1015.3
20260508105923 16 360 0.0 1.6 0.00 0.00 0.00 82 1015.3
20260508105827 16 360 0.0 0.0 0.00 0.00 0.00 82 1015.3
20260508105728 16 360 0.0 1.6 0.00 0.00 0.00 82 1015.2
20260508105628 16 360 0.0 1.6 0.00 0.00 0.00 82 1015.2
20260508105549 16 360 0.0 1.6 0.00 0.00 0.00 82 1015.2
20260508105429 16 360 0.0 1.6 0.00 0.00 0.00 82 1015.2
20260508105329 16 360 0.0 1.6 0.00 0.00 0.00 82 1015.1
20260508105229 16 360 0.0 1.6 0.00 0.00 0.00 82 1015.1
20260508105134 16 360 0.0 1.6 0.00 0.00 0.00 82 1015.1
20260508105035 16 360 0.0 1.6 0.00 0.00 0.00 82 1015.1
20260508104956 16 360 0.0 3.2 0.00 0.00 0.00 82 1015.1
20260508104836 16 360 0.0 8.0 0.00 0.00 0.00 82 1015.0
20260508104756 16 360 0.0 8.0 0.00 0.00 0.00 82 1015.1
20260508104656 16 360 0.0 8.0 0.00 0.00 0.00 82 1015.0
20260508104556 16 340 0.0 8.0 0.00 0.00 0.00 82 1015.0
20260508104435 16 360 1.6 8.0 0.00 0.00 0.00 82 1015.0
20260508104319 16 360 1.6 8.0 0.00 0.00 0.00 82 1015.0
20260508104220 16 360 3.2 8.0 0.00 0.00 0.00 82 1015.0
20260508104121 16 360 3.2 8.0 0.00 0.00 0.00 82 1015.1
20260508104021 16 360 3.2 8.0 0.00 0.00 0.00 82 1015.0
20260508103922 16 360 3.2 8.0 0.00 0.00 0.00 82 1015.0
20260508103823 16 360 3.2 8.0 0.00 0.00 0.00 82 1015.0
20260508103722 16 360 3.2 8.0 0.00 0.00 0.00 82 1015.1
20260508103627 16 360 3.2 8.0 0.00 0.00 0.00 82 1015.1
20260508103527 16 360 4.8 8.0 0.00 0.00 0.00 82 1015.1
20260508103428 16 360 4.8 8.0 0.00 0.00 0.00 82 1015.2
20260508103329 16 28 3.2 9.7 0.00 0.00 0.00 82 1015.2
20260508103231 16 360 4.8 12.9 0.00 0.00 0.00 82 1015.3
20260508103132 16 360 4.8 12.9 0.00 0.00 0.00 82 1015.2
20260508103016 16 360 4.8 12.9 0.00 0.00 0.00 82 1015.3
20260508102918 16 360 4.8 12.9 0.00 0.00 0.00 82 1015.2
20260508102819 16 360 4.8 12.9 0.00 0.00 0.00 82 1015.2
20260508102719 16 360 6.4 12.9 0.00 0.00 0.00 82 1015.2
20260508102619 16 360 6.4 12.9 0.00 0.00 0.00 82 1015.3
20260508102519 16 360 6.4 12.9 0.00 0.00 0.00 82 1015.3
20260508102439 16 360 6.4 14.5 0.00 0.00 0.00 82 1015.2
20260508102323 16 360 6.4 14.5 0.00 0.00 0.00 82 1015.2
20260508102224 16 360 6.4 14.5 0.00 0.00 0.00 82 1015.2
20260508102144 16 360 6.4 14.5 0.00 0.00 0.00 82 1015.2
20260508102025 16 360 6.4 14.5 0.00 0.00 0.00 82 1015.1
20260508101925 16 360 6.4 14.5 0.00 0.00 0.00 82 1015.1
20260508101825 16 25 6.4 12.9 0.00 0.00 0.00 82 1015.1
20260508101726 16 39 6.4 12.9 0.00 0.00 0.00 82 1015.1
20260508101646 16 360 6.4 12.9 0.00 0.00 0.00 82 1015.1
20260508101549 16 360 6.4 12.9 0.00 0.00 0.00 82 1015.1
20260508101430 16 360 6.4 12.9 0.00 0.00 0.00 83 1015.1
20260508101330 16 360 6.4 12.9 0.00 0.00 0.00 83 1015.1
20260508101231 16 360 6.4 12.9 0.00 0.00 0.00 83 1015.2
20260508101130 16 360 6.4 12.9 0.00 0.00 0.00 83 1015.1
20260508101030 16 360 6.4 12.9 0.00 0.00 0.00 83 1015.1
20260508100931 16 360 6.4 12.9 0.00 0.00 0.00 83 1015.1
20260508100816 16 360 6.4 12.9 0.00 0.00 0.00 83 1015.0
20260508100717 16 360 6.4 12.9 0.00 0.00 0.00 83 1015.0
20260508100616 16 360 6.4 12.9 0.00 0.00 0.00 83 1014.9
20260508100516 16 360 4.8 12.9 0.00 0.00 0.00 83 1015.0
20260508100417 16 360 4.8 12.9 0.00 0.00 0.00 83 1015.2
20260508100317 16 360 4.8 12.9 0.00 0.00 0.00 83 1015.2
20260508100237 16 360 4.8 12.9 0.00 0.00 0.00 83 1015.3
20260508100117 16 360 4.8 12.9 0.00 0.00 0.00 83 1015.2
20260508100022 16 360 4.8 12.9 0.00 0.00 0.00 83 1015.3
20260508095921 16 360 4.8 12.9 0.00 0.00 0.00 84 1015.3
20260508095823 16 360 4.8 12.9 0.00 0.00 0.00 84 1015.4
20260508095723 16 360 4.8 12.9 0.00 0.00 0.00 84 1015.3
20260508095624 16 360 4.8 8.0 0.00 0.00 0.00 84 1015.4
20260508095525 16 360 4.8 8.0 0.00 0.00 0.00 84 1015.3
20260508095428 16 360 4.8 8.0 0.00 0.00 0.00 84 1015.3
20260508095329 16 360 4.8 8.0 0.00 0.00 0.00 84 1015.4
20260508095250 16 360 4.8 8.0 0.00 0.00 0.00 84 1015.2
20260508095130 16 360 4.8 6.4 0.00 0.00 0.00 84 1015.3
20260508095030 16 304 3.2 6.4 0.00 0.00 0.00 84 1015.2
20260508094930 16 360 3.2 6.4 0.00 0.00 0.00 84 1015.2
20260508094831 16 360 3.2 4.8 0.00 0.00 0.00 84 1015.3
20260508094716 16 360 1.6 4.8 0.00 0.00 0.00 84 1015.2
20260508094636 16 360 1.6 4.8 0.00 0.00 0.00 83 1015.2
20260508094516 16 360 3.2 4.8 0.00 0.00 0.00 83 1015.2
20260508094417 16 360 3.2 4.8 0.00 0.00 0.00 83 1015.2
20260508094316 16 360 3.2 4.8 0.00 0.00 0.00 83 1015.1
20260508094218 16 360 1.6 4.8 0.00 0.00 0.00 83 1015.1
20260508094117 16 360 3.2 4.8 0.00 0.00 0.00 83 1015.2
20260508094021 16 360 3.2 4.8 0.00 0.00 0.00 83 1015.3
20260508093922 16 360 1.6 4.8 0.00 0.00 0.00 83 1015.1
20260508093843 16 360 1.6 4.8 0.00 0.00 0.00 83 1015.2
20260508093721 16 360 1.6 4.8 0.00 0.00 0.00 83 1015.3
20260508093621 16 360 3.2 4.8 0.00 0.00 0.00 83 1015.3
20260508093542 16 360 3.2 4.8 0.00 0.00 0.00 83 1015.2
20260508093422 16 360 3.2 4.8 0.00 0.00 0.00 83 1015.4
20260508093342 16 360 3.2 4.8 0.00 0.00 0.00 83 1015.3
20260508093242 16 360 3.2 4.8 0.00 0.00 0.00 82 1015.4
20260508093125 16 302 3.2 4.8 0.00 0.00 0.00 82 1015.4
20260508093026 16 360 3.2 6.4 0.00 0.00 0.00 82 1015.4
20260508092946 16 360 3.2 6.4 0.00 0.00 0.00 82 1015.5
20260508092826 16 360 3.2 6.4 0.00 0.00 0.00 82 1015.5
20260508092725 16 360 3.2 6.4 0.00 0.00 0.00 82 1015.5
20260508092626 16 302 3.2 6.4 0.00 0.00 0.00 82 1015.5
20260508092527 16 360 3.2 6.4 0.00 0.00 0.00 82 1015.6
20260508092432 16 360 3.2 6.4 0.00 0.00 0.00 82 1015.6
20260508092353 16 360 3.2 6.4 0.00 0.00 0.00 82 1015.5
20260508092253 16 360 3.2 6.4 0.00 0.00 0.00 82 1015.4
20260508092132 16 360 3.2 6.4 0.00 0.00 0.00 82 1015.5
20260508092033 16 360 3.2 4.8 0.00 0.00 0.00 82 1015.5
20260508091933 16 360 3.2 4.8 0.00 0.00 0.00 82 1015.5
20260508091835 16 301 3.2 4.8 0.00 0.00 0.00 82 1015.5
20260508091719 16 360 3.2 4.8 0.00 0.00 0.00 82 1015.5
20260508091620 16 360 3.2 4.8 0.00 0.00 0.00 82 1015.4
20260508091521 16 360 3.2 4.8 0.00 0.00 0.00 82 1015.4
20260508091441 16 360 3.2 4.8 0.00 0.00 0.00 81 1015.4
20260508091341 16 360 3.2 4.8 0.00 0.00 0.00 81 1015.4
20260508091220 16 360 3.2 4.8 0.00 0.00 0.00 81 1015.4
20260508091120 16 360 3.2 4.8 0.00 0.00 0.00 81 1015.3
20260508091022 16 360 3.2 4.8 0.00 0.00 0.00 81 1015.4
20260508090925 16 360 3.2 4.8 0.00 0.00 0.00 81 1015.3
20260508090826 16 360 3.2 4.8 0.00 0.00 0.00 80 1015.3
20260508090725 16 360 3.2 4.8 0.00 0.00 0.00 80 1015.2
20260508090627 16 360 3.2 4.8 0.00 0.00 0.00 80 1015.3
20260508090527 16 360 1.6 4.8 0.00 0.00 0.00 80 1015.4
20260508090428 16 360 1.6 4.8 0.00 0.00 0.00 80 1015.2
20260508090332 16 360 1.6 4.8 0.00 0.00 0.00 80 1015.3
20260508090233 16 360 1.6 3.2 0.00 0.00 0.00 80 1015.2
20260508090133 16 46 1.6 3.2 0.00 0.00 0.00 80 1015.2
20260508090032 16 46 1.6 3.2 0.00 0.00 0.00 80 1015.0
20260508085952 16 44 1.6 3.2 0.00 0.00 0.00 80 1015.0
20260508085832 16 360 0.0 3.2 0.00 0.00 0.00 79 1015.0
20260508085733 16 44 0.0 3.2 0.00 0.00 0.00 79 1015.0
20260508085618 16 45 0.0 3.2 0.00 0.00 0.00 79 1015.0
20260508085518 16 47 0.0 3.2 0.00 0.00 0.00 79 1014.9
20260508085419 16 47 1.6 3.2 0.00 0.00 0.00 79 1015.0
20260508085320 16 360 1.6 3.2 0.00 0.00 0.00 79 1014.9
20260508085220 16 360 1.6 3.2 0.00 0.00 0.00 79 1014.9
20260508085120 16 45 1.6 3.2 0.00 0.00 0.00 79 1014.9
20260508085021 16 44 1.6 3.2 0.00 0.00 0.00 79 1015.0
20260508084926 16 46 0.0 3.2 0.00 0.00 0.00 79 1015.0
20260508084846 16 360 0.0 3.2 0.00 0.00 0.00 79 1014.9
20260508084726 16 360 0.0 0.0 0.00 0.00 0.00 79 1014.9
20260508084625 16 360 0.0 0.0 0.00 0.00 0.00 79 1015.0
20260508084526 16 360 0.0 0.0 0.00 0.00 0.00 79 1015.0
20260508084427 16 360 0.0 0.0 0.00 0.00 0.00 79 1015.0
20260508084328 16 360 0.0 0.0 0.00 0.00 0.00 79 1015.0
20260508084232 16 360 0.0 0.0 0.00 0.00 0.00 78 1015.0
20260508084133 16 46 0.0 0.0 0.00 0.00 0.00 78 1015.1
20260508084033 16 46 0.0 0.0 0.00 0.00 0.00 78 1015.0
20260508083933 16 46 0.0 0.0 0.00 0.00 0.00 78 1015.2
20260508083835 16 46 0.0 0.0 0.00 0.00 0.00 78 1015.2
20260508083735 16 46 0.0 0.0 0.00 0.00 0.00 78 1015.2
20260508083620 16 46 0.0 0.0 0.00 0.00 0.00 78 1015.2
20260508083520 16 46 0.0 0.0 0.00 0.00 0.00 78 1015.1
20260508083441 16 46 0.0 3.2 0.00 0.00 0.00 78 1015.1
20260508083320 16 46 0.0 3.2 0.00 0.00 0.00 78 1015.1
20260508083221 16 46 0.0 3.2 0.00 0.00 0.00 78 1015.1
20260508083122 16 48 0.0 3.2 0.00 0.00 0.00 78 1015.0
20260508083024 16 48 0.0 3.2 0.00 0.00 0.00 78 1015.0
20260508082928 16 47 0.0 3.2 0.00 0.00 0.00 79 1015.0
20260508082830 16 48 0.0 3.2 0.00 0.00 0.00 79 1015.1
20260508082732 16 360 0.0 3.2 0.00 0.00 0.00 79 1015.0
20260508082632 16 360 0.0 3.2 0.00 0.00 0.00 79 1015.1
20260508082533 16 360 0.0 3.2 0.00 0.00 0.00 79 1015.1
20260508082433 16 360 0.0 3.2 0.00 0.00 0.00 79 1015.1
20260508082318 16 360 0.0 3.2 0.00 0.00 0.00 79 1015.2
20260508082217 16 360 1.6 3.2 0.00 0.00 0.00 78 1015.2
20260508082118 16 360 1.6 3.2 0.00 0.00 0.00 79 1015.3
20260508082039 16 44 1.6 3.2 0.00 0.00 0.00 79 1015.3
20260508081919 16 46 1.6 3.2 0.00 0.00 0.00 79 1015.4
20260508081840 16 48 1.6 3.2 0.00 0.00 0.00 79 1015.4
20260508081718 16 47 1.6 3.2 0.00 0.00 0.00 79 1015.4
20260508081620 16 360 1.6 3.2 0.00 0.00 0.00 79 1015.5
20260508081524 16 360 1.6 3.2 0.00 0.00 0.00 79 1015.3
20260508081425 16 45 1.6 3.2 0.00 0.00 0.00 79 1015.4
20260508081325 16 360 1.6 3.2 0.00 0.00 0.00 79 1015.4
20260508081226 16 360 1.6 3.2 0.00 0.00 0.00 79 1015.4
20260508081126 16 44 1.6 3.2 0.00 0.00 0.00 79 1015.4
20260508081027 16 360 1.6 3.2 0.00 0.00 0.00 79 1015.3
20260508080932 16 360 1.6 3.2 0.00 0.00 0.00 79 1015.4
20260508080832 16 44 1.6 3.2 0.00 0.00 0.00 79 1015.3
20260508080734 16 46 1.6 3.2 0.00 0.00 0.00 79 1015.3
20260508080634 16 360 1.6 3.2 0.00 0.00 0.00 79 1015.3
20260508080534 16 44 1.6 3.2 0.00 0.00 0.00 79 1015.3
20260508080454 16 46 1.6 3.2 0.00 0.00 0.00 79 1015.3
20260508080335 16 360 1.6 3.2 0.00 0.00 0.00 79 1015.3
20260508080234 16 360 0.0 3.2 0.00 0.00 0.00 78 1015.3
20260508080118 16 49 0.0 1.6 0.00 0.00 0.00 78 1015.4
20260508080040 16 360 0.0 1.6 0.00 0.00 0.00 78 1015.5
20260508075918 16 360 0.0 1.6 0.00 0.00 0.00 78 1015.6
20260508075820 16 360 0.0 1.6 0.00 0.00 0.00 78 1015.5
20260508075740 16 360 0.0 1.6 0.00 0.00 0.00 78 1015.5
20260508075620 16 49 0.0 1.6 0.00 0.00 0.00 78 1015.3
20260508075521 16 360 0.0 1.6 0.00 0.00 0.00 78 1015.3
20260508075425 16 48 0.0 1.6 0.00 0.00 0.00 78 1015.2
20260508075325 16 48 0.0 1.6 0.00 0.00 0.00 78 1015.2
20260508075245 16 48 0.0 1.6 0.00 0.00 0.00 78 1015.1
20260508075125 16 48 0.0 1.6 0.00 0.00 0.00 78 1015.2
20260508075025 16 48 0.0 1.6 0.00 0.00 0.00 78 1015.1
20260508074926 16 48 0.0 3.2 0.00 0.00 0.00 78 1015.1
20260508074847 16 360 0.0 3.2 0.00 0.00 0.00 78 1015.1
20260508074725 16 360 0.0 3.2 0.00 0.00 0.00 78 1015.1
20260508074631 16 360 0.0 3.2 0.00 0.00 0.00 78 1015.1
20260508074550 16 360 0.0 3.2 0.00 0.00 0.00 78 1015.1
20260508074427 16 360 0.0 3.2 0.00 0.00 0.00 78 1015.2
20260508074328 16 360 0.0 3.2 0.00 0.00 0.00 78 1015.2
20260508074230 16 360 0.0 3.2 0.00 0.00 0.00 78 1015.2
20260508074129 16 360 0.0 3.2 0.00 0.00 0.00 78 1015.2
20260508074030 16 360 0.0 3.2 0.00 0.00 0.00 78 1015.2
20260508073915 16 360 0.0 3.2 0.00 0.00 0.00 78 1015.3
20260508073817 16 360 1.6 3.2 0.00 0.00 0.00 78 1015.3
20260508073717 16 360 1.6 3.2 0.00 0.00 0.00 78 1015.3
20260508073617 16 48 1.6 3.2 0.00 0.00 0.00 78 1015.3
20260508073519 16 360 1.6 3.2 0.00 0.00 0.00 79 1015.3
20260508073420 16 360 0.0 3.2 0.00 0.00 0.00 79 1015.3
20260508073322 16 360 0.0 3.2 0.00 0.00 0.00 79 1015.3
20260508073228 16 360 0.0 3.2 0.00 0.00 0.00 79 1015.3
20260508073127 16 360 0.0 3.2 0.00 0.00 0.00 79 1015.3
20260508073027 16 360 0.0 8.0 0.00 0.00 0.00 79 1015.2
20260508072927 16 360 0.0 8.0 0.00 0.00 0.00 79 1015.2
20260508072828 16 360 0.0 8.0 0.00 0.00 0.00 79 1015.2
20260508072749 16 360 0.0 8.0 0.00 0.00 0.00 79 1015.2
20260508072628 16 360 1.6 8.0 0.00 0.00 0.00 79 1015.3
20260508072531 16 360 1.6 8.0 0.00 0.00 0.00 79 1015.3
20260508072452 16 360 1.6 8.0 0.00 0.00 0.00 79 1015.2
20260508072353 16 360 3.2 8.0 0.00 0.00 0.00 79 1015.2
20260508072232 16 360 3.2 8.0 0.00 0.00 0.00 79 1015.3
20260508072134 16 360 3.2 8.0 0.00 0.00 0.00 79 1015.3
20260508072035 16 360 3.2 8.0 0.00 0.00 0.00 79 1015.3
20260508071935 16 360 3.2 8.0 0.00 0.00 0.00 79 1015.2
20260508071816 16 360 3.2 8.0 0.00 0.00 0.00 79 1015.1
20260508071721 16 360 3.2 8.0 0.00 0.00 0.00 79 1015.1
20260508071622 16 360 3.2 6.4 0.00 0.00 0.00 79 1015.0
20260508071523 16 360 1.6 4.8 0.00 0.00 0.00 79 1015.1
20260508071424 16 360 1.6 4.8 0.00 0.00 0.00 79 1015.1
20260508071325 16 49 1.6 3.2 0.00 0.00 0.00 79 1015.1
20260508071244 16 360 1.6 3.2 0.00 0.00 0.00 79 1015.2
20260508071125 16 360 1.6 3.2 0.00 0.00 0.00 79 1015.2
20260508071030 16 49 1.6 4.8 0.00 0.00 0.00 79 1015.2
20260508070930 16 360 0.0 4.8 0.00 0.00 0.00 79 1015.2
20260508070830 16 360 0.0 4.8 0.00 0.00 0.00 79 1015.3
20260508070731 16 360 0.0 4.8 0.00 0.00 0.00 79 1015.4
20260508070630 16 360 1.6 4.8 0.00 0.00 0.00 79 1015.2
20260508070551 16 360 1.6 4.8 0.00 0.00 0.00 79 1015.3
20260508070431 16 360 1.6 4.8 0.00 0.00 0.00 79 1015.3
20260508070316 16 360 3.2 4.8 0.00 0.00 0.00 79 1015.2
20260508070216 16 360 3.2 4.8 0.00 0.00 0.00 79 1015.1
20260508070138 16 44 3.2 4.8 0.00 0.00 0.00 79 1015.2
20260508070016 16 360 3.2 4.8 0.00 0.00 0.00 79 1015.2
20260508065917 16 45 3.2 4.8 0.00 0.00 0.00 79 1015.2
20260508065819 16 360 3.2 4.8 0.00 0.00 0.00 79 1015.3
20260508065720 16 45 3.2 4.8 0.00 0.00 0.00 79 1015.3
20260508065645 16 360 3.2 4.8 0.00 0.00 0.00 79 1015.2
20260508065523 16 360 3.2 4.8 0.00 0.00 0.00 79 1015.2
20260508065424 16 360 3.2 4.8 0.00 0.00 0.00 79 1015.3
20260508065345 16 360 1.6 4.8 0.00 0.00 0.00 79 1015.3
20260508065224 16 360 1.6 4.8 0.00 0.00 0.00 79 1015.3
20260508065125 16 360 1.6 4.8 0.00 0.00 0.00 79 1015.4
20260508065045 16 360 1.6 4.8 0.00 0.00 0.00 79 1015.4
20260508064925 16 360 0.0 4.8 0.00 0.00 0.00 79 1015.4
20260508064823 16 360 0.0 3.2 0.00 0.00 0.00 79 1015.5
20260508064728 16 360 0.0 0.0 0.00 0.00 0.00 79 1015.5
20260508064629 16 360 0.0 3.2 0.00 0.00 0.00 79 1015.6
20260508064529 16 360 0.0 3.2 0.00 0.00 0.00 79 1015.6
20260508064429 16 342 0.0 3.2 0.00 0.00 0.00 79 1015.7
20260508064329 16 342 0.0 3.2 0.00 0.00 0.00 79 1015.8
20260508064230 16 360 0.0 3.2 0.00 0.00 0.00 79 1015.7
20260508064134 16 360 0.0 3.2 0.00 0.00 0.00 79 1015.8
20260508064034 16 360 0.0 3.2 0.00 0.00 0.00 79 1015.8
20260508063934 16 360 0.0 3.2 0.00 0.00 0.00 79 1015.8
20260508063835 16 360 0.0 3.2 0.00 0.00 0.00 79 1015.8
20260508063735 16 360 0.0 3.2 0.00 0.00 0.00 79 1015.7
20260508063635 16 360 1.6 3.2 0.00 0.00 0.00 79 1015.7
20260508063555 16 360 1.6 3.2 0.00 0.00 0.00 79 1015.7
20260508063419 16 342 1.6 3.2 0.00 0.00 0.00 79 1015.8
20260508063319 16 360 1.6 4.8 0.00 0.00 0.00 79 1015.8
20260508063219 16 360 1.6 4.8 0.00 0.00 0.00 79 1015.9
20260508063120 16 360 1.6 4.8 0.00 0.00 0.00 78 1015.9
20260508063021 16 360 1.6 4.8 0.00 0.00 0.00 79 1016.0
20260508062920 16 340 1.6 4.8 0.00 0.00 0.00 79 1016.1
20260508062821 16 360 1.6 4.8 0.00 0.00 0.00 79 1016.2
20260508062727 16 360 1.6 4.8 0.00 0.00 0.00 79 1016.2
20260508062626 16 360 1.6 4.8 0.00 0.00 0.00 79 1016.2
20260508062526 16 360 1.6 4.8 0.00 0.00 0.00 79 1016.2
20260508062427 16 360 1.6 4.8 0.00 0.00 0.00 79 1016.3
20260508062348 16 360 0.0 4.8 0.00 0.00 0.00 79 1016.2
20260508062227 16 360 0.0 1.6 0.00 0.00 0.00 78 1016.2
20260508062127 16 360 0.0 1.6 0.00 0.00 0.00 79 1016.2
20260508062031 16 360 0.0 1.6 0.00 0.00 0.00 79 1016.2
20260508061951 16 360 0.0 1.6 0.00 0.00 0.00 79 1016.1
20260508061831 16 342 0.0 1.6 0.00 0.00 0.00 79 1016.1
20260508061751 16 342 0.0 1.6 0.00 0.00 0.00 79 1016.1
20260508061631 16 360 0.0 0.0 0.00 0.00 0.00 79 1016.2
20260508061530 16 360 0.0 0.0 0.00 0.00 0.00 79 1016.1
20260508061429 16 360 0.0 0.0 0.00 0.00 0.00 79 1016.1
20260508061349 16 360 0.0 0.0 0.00 0.00 0.00 79 1016.0
20260508061248 16 360 0.0 0.0 0.00 0.00 0.00 79 1016.1
20260508061133 16 360 0.0 0.0 0.00 0.00 0.00 79 1016.1
20260508061053 16 360 0.0 1.6 0.00 0.00 0.00 79 1016.1
20260508060952 16 360 0.0 3.2 0.00 0.00 0.00 79 1016.0
20260508060831 16 360 0.0 3.2 0.00 0.00 0.00 79 1016.0
20260508060732 16 360 0.0 3.2 0.00 0.00 0.00 79 1016.0
20260508060633 16 360 0.0 3.2 0.00 0.00 0.00 79 1015.9
20260508060533 16 360 0.0 3.2 0.00 0.00 0.00 79 1016.0
20260508060417 16 360 1.6 3.2 0.00 0.00 0.00 79 1016.1
20260508060338 16 360 1.6 3.2 0.00 0.00 0.00 79 1016.0
20260508060217 16 360 1.6 3.2 0.00 0.00 0.00 79 1016.0
20260508060119 16 360 0.0 3.2 0.00 0.00 0.00 79 1016.1
20260508060039 16 360 0.0 3.2 0.00 0.00 0.00 79 1016.1
20260508055917 16 360 0.0 3.2 0.00 0.00 0.00 79 1016.0
20260508055819 16 360 0.0 3.2 0.00 0.00 0.00 78 1016.0
20260508055718 16 360 0.0 4.8 0.00 0.00 0.00 78 1015.8
20260508055622 16 360 0.0 4.8 0.00 0.00 0.00 78 1015.8
20260508055523 16 360 0.0 4.8 0.00 0.00 0.00 78 1015.8
20260508055424 16 360 1.6 4.8 0.00 0.00 0.00 79 1015.7
20260508055324 16 360 1.6 4.8 0.00 0.00 0.00 79 1015.8
20260508055245 16 360 1.6 4.8 0.00 0.00 0.00 79 1015.8
20260508055125 16 360 1.6 4.8 0.00 0.00 0.00 79 1015.8
20260508055025 16 360 3.2 4.8 0.00 0.00 0.00 79 1015.9
20260508054950 16 360 1.6 4.8 0.00 0.00 0.00 79 1015.9
20260508054828 16 360 1.6 3.2 0.00 0.00 0.00 79 1015.9
20260508054749 16 360 1.6 3.2 0.00 0.00 0.00 79 1015.9
20260508054628 16 360 0.0 3.2 0.00 0.00 0.00 79 1015.9
20260508054527 16 360 0.0 1.6 0.00 0.00 0.00 78 1015.9
20260508054428 16 360 0.0 1.6 0.00 0.00 0.00 79 1015.9
20260508054329 16 360 0.0 1.6 0.00 0.00 0.00 79 1015.9
20260508054230 16 360 0.0 3.2 0.00 0.00 0.00 79 1016.0
20260508054134 16 360 0.0 4.8 0.00 0.00 0.00 79 1016.0
20260508054034 16 360 0.0 4.8 0.00 0.00 0.00 79 1016.0
20260508053934 16 360 0.0 4.8 0.00 0.00 0.00 79 1016.1
20260508053855 16 360 1.6 3.2 0.00 0.00 0.00 79 1016.2
20260508053755 16 360 1.6 3.2 0.00 0.00 0.00 79 1016.3
20260508053634 16 360 1.6 3.2 0.00 0.00 0.00 79 1016.3
20260508053534 16 360 1.6 3.2 0.00 0.00 0.00 79 1016.3
20260508053419 16 360 1.6 3.2 0.00 0.00 0.00 79 1016.2
20260508053319 16 360 1.6 3.2 0.00 0.00 0.00 79 1016.3
20260508053220 16 360 1.6 3.2 0.00 0.00 0.00 79 1016.3
20260508053120 16 360 1.6 3.2 0.00 0.00 0.00 79 1016.3
20260508053021 16 360 1.6 3.2 0.00 0.00 0.00 79 1016.4
20260508052922 16 360 1.6 3.2 0.00 0.00 0.00 79 1016.2
20260508052823 16 360 0.0 3.2 0.00 0.00 0.00 79 1016.2
20260508052729 16 360 0.0 3.2 0.00 0.00 0.00 79 1016.2
20260508052628 16 360 0.0 4.8 0.00 0.00 0.00 79 1016.1
20260508052529 16 360 0.0 4.8 0.00 0.00 0.00 79 1016.1
20260508052448 16 360 0.0 4.8 0.00 0.00 0.00 79 1016.1
20260508052328 16 360 0.0 4.8 0.00 0.00 0.00 79 1016.1
20260508052228 16 360 0.0 4.8 0.00 0.00 0.00 79 1016.1
20260508052127 16 360 1.6 4.8 0.00 0.00 0.00 79 1016.0
20260508052031 16 360 1.6 4.8 0.00 0.00 0.00 79 1016.0
20260508051932 16 360 1.6 4.8 0.00 0.00 0.00 79 1016.0
20260508051831 16 360 1.6 4.8 0.00 0.00 0.00 79 1016.1
20260508051731 16 360 3.2 4.8 0.00 0.00 0.00 79 1016.0
20260508051651 16 360 3.2 4.8 0.00 0.00 0.00 78 1016.1
20260508051531 16 360 3.2 4.8 0.00 0.00 0.00 79 1016.0
20260508051431 16 360 3.2 4.8 0.00 0.00 0.00 79 1016.1
20260508051316 16 360 3.2 6.4 0.00 0.00 0.00 79 1016.1
20260508051217 16 360 3.2 6.4 0.00 0.00 0.00 79 1016.0
20260508051117 16 360 3.2 6.4 0.00 0.00 0.00 79 1016.0
20260508051018 16 344 3.2 6.4 0.00 0.00 0.00 79 1015.9
20260508050919 16 360 1.6 6.4 0.00 0.00 0.00 79 1015.9
20260508050820 16 360 3.2 6.4 0.00 0.00 0.00 78 1015.8
20260508050719 16 360 3.2 6.4 0.00 0.00 0.00 78 1015.8
20260508050624 16 360 3.2 6.4 0.00 0.00 0.00 78 1015.9
20260508050524 16 360 3.2 6.4 0.00 0.00 0.00 79 1015.7
20260508050425 16 360 3.2 6.4 0.00 0.00 0.00 79 1015.7
20260508050325 16 360 3.2 6.4 0.00 0.00 0.00 78 1015.8
20260508050226 16 360 3.2 6.4 0.00 0.00 0.00 79 1015.8
20260508050126 16 360 3.2 6.4 0.00 0.00 0.00 78 1015.8
20260508050031 16 360 3.2 8.0 0.00 0.00 0.00 78 1015.8
20260508045926 16 360 3.2 8.0 0.00 0.00 0.00 78 1015.8
20260508045827 16 360 3.2 9.7 0.00 0.00 0.00 78 1015.9
20260508045727 16 360 4.8 9.7 0.00 0.00 0.00 78 1015.9
20260508045627 16 360 4.8 9.7 0.00 0.00 0.00 78 1015.9
20260508045528 16 360 4.8 9.7 0.00 0.00 0.00 78 1015.9
20260508045429 16 360 4.8 9.7 0.00 0.00 0.00 78 1016.1
20260508045333 16 360 4.8 9.7 0.00 0.00 0.00 78 1016.0
20260508045233 16 360 4.8 9.7 0.00 0.00 0.00 78 1016.1
20260508045134 16 360 4.8 9.7 0.00 0.00 0.00 78 1016.2
20260508045035 16 360 4.8 9.7 0.00 0.00 0.00 78 1016.2
20260508044935 16 360 4.8 9.7 0.00 0.00 0.00 78 1016.2
20260508044835 16 360 3.2 9.7 0.00 0.00 0.00 78 1016.2
20260508044721 16 360 3.2 12.9 0.00 0.00 0.00 78 1016.4
20260508044641 16 360 3.2 14.5 0.00 0.00 0.00 78 1016.6
20260508044519 16 360 3.2 14.5 0.00 0.00 0.00 78 1016.6
20260508044440 16 360 4.8 16.1 0.00 0.00 0.00 78 1016.7
20260508044340 16 299 6.4 16.1 0.00 0.00 0.00 78 1016.7
20260508044220 16 360 6.4 16.1 0.00 0.00 0.00 78 1016.8
20260508044120 16 360 8.0 16.1 0.00 0.00 0.00 78 1016.8
20260508044021 16 360 9.7 16.1 0.00 0.00 0.00 78 1016.9
20260508043942 16 360 9.7 16.1 0.00 0.00 0.00 77 1017.0
20260508043825 16 360 9.7 16.1 0.00 0.00 0.00 77 1016.9
20260508043726 16 360 9.7 16.1 0.00 0.00 0.00 77 1016.8
20260508043627 16 360 8.0 16.1 0.00 0.00 0.00 77 1016.8
20260508043548 16 360 6.4 9.7 0.00 0.00 0.00 77 1016.3
20260508043447 16 360 4.8 8.0 0.00 0.00 0.00 77 1015.8
20260508043326 16 17 3.2 8.0 0.00 0.00 0.00 77 1015.5
20260508043227 16 360 3.2 8.0 0.00 0.00 0.00 77 1015.5
20260508043132 16 360 4.8 8.0 0.00 0.00 0.00 77 1015.4
20260508043033 16 360 4.8 8.0 0.00 0.00 0.00 77 1015.3
20260508042933 16 360 4.8 8.0 0.00 0.00 0.00 77 1015.3
20260508042833 16 360 4.8 8.0 0.00 0.00 0.00 77 1015.3
20260508042736 16 360 4.8 8.0 0.00 0.00 0.00 77 1015.3
20260508042635 16 360 4.8 8.0 0.00 0.00 0.00 77 1015.4
20260508042520 16 360 4.8 8.0 0.00 0.00 0.00 77 1015.5
20260508042421 16 360 4.8 6.4 0.00 0.00 0.00 77 1015.5
20260508042321 16 360 4.8 6.4 0.00 0.00 0.00 77 1015.6
20260508042221 16 360 4.8 6.4 0.00 0.00 0.00 77 1015.7
20260508042123 16 360 4.8 6.4 0.00 0.00 0.00 77 1015.9
20260508042024 16 360 3.2 6.4 0.00 0.00 0.00 77 1015.9
20260508041924 16 360 3.2 6.4 0.00 0.00 0.00 77 1016.0
20260508041829 16 42 3.2 6.4 0.00 0.00 0.00 77 1016.0
20260508041729 16 52 3.2 6.4 0.00 0.00 0.00 77 1016.0
20260508041629 16 360 3.2 6.4 0.00 0.00 0.00 77 1015.8
20260508041529 16 360 3.2 6.4 0.00 0.00 0.00 77 1015.9
20260508041449 16 360 3.2 6.4 0.00 0.00 0.00 77 1015.8
20260508041329 16 360 3.2 6.4 0.00 0.00 0.00 77 1015.7
20260508041229 16 360 3.2 6.4 0.00 0.00 0.00 77 1015.8
20260508041150 16 360 3.2 6.4 0.00 0.00 0.00 77 1015.9
20260508041033 16 360 3.2 6.4 0.00 0.00 0.00 77 1015.9
20260508040934 16 360 3.2 6.4 0.00 0.00 0.00 77 1016.0
20260508040833 16 360 1.6 6.4 0.00 0.00 0.00 77 1016.0
20260508040734 16 360 1.6 6.4 0.00 0.00 0.00 77 1016.1
20260508040635 16 360 1.6 6.4 0.00 0.00 0.00 77 1016.0
20260508040555 16 360 1.6 6.4 0.00 0.00 0.00 77 1016.1
20260508040419 16 360 0.0 6.4 0.00 0.00 0.00 77 1016.0
20260508040319 16 360 0.0 6.4 0.00 0.00 0.00 77 1016.1
20260508040219 16 360 1.6 6.4 0.00 0.00 0.00 77 1016.2
20260508040120 16 360 1.6 6.4 0.00 0.00 0.00 77 1016.2
20260508040021 16 360 1.6 6.4 0.00 0.00 0.00 77 1016.4
20260508035922 16 360 3.2 6.4 0.00 0.00 0.00 77 1016.3
20260508035824 16 360 3.2 6.4 0.00 0.00 0.00 77 1016.4
20260508035748 16 360 3.2 6.4 0.00 0.00 0.00 77 1016.4
20260508035626 16 360 3.2 6.4 0.00 0.00 0.00 76 1016.4
20260508035527 16 360 3.2 4.8 0.00 0.00 0.00 76 1016.4
20260508035428 16 360 3.2 4.8 0.00 0.00 0.00 76 1016.4
20260508035328 16 360 3.2 4.8 0.00 0.00 0.00 76 1016.4
20260508035249 16 360 3.2 4.8 0.00 0.00 0.00 76 1016.4
20260508035129 16 360 3.2 4.8 0.00 0.00 0.00 76 1016.4
20260508035033 16 360 3.2 4.8 0.00 0.00 0.00 76 1016.5
20260508034934 16 360 3.2 4.8 0.00 0.00 0.00 76 1016.6
20260508034836 16 360 3.2 4.8 0.00 0.00 0.00 76 1016.6
20260508034716 16 360 3.2 4.8 0.00 0.00 0.00 76 1016.6
20260508034617 16 360 3.2 4.8 0.00 0.00 0.00 76 1016.6
20260508034518 16 360 3.2 4.8 0.00 0.00 0.00 76 1016.5
20260508034422 16 360 3.2 4.8 0.00 0.00 0.00 76 1016.4
20260508034343 16 360 3.2 4.8 0.00 0.00 0.00 76 1016.5
20260508034221 16 360 3.2 4.8 0.00 0.00 0.00 76 1016.4
20260508034122 16 360 3.2 4.8 0.00 0.00 0.00 76 1016.4
20260508034023 16 360 3.2 4.8 0.00 0.00 0.00 75 1016.5
20260508033924 16 360 1.6 4.8 0.00 0.00 0.00 75 1016.5
20260508033824 16 360 1.6 4.8 0.00 0.00 0.00 75 1016.5
20260508033729 16 360 1.6 4.8 0.00 0.00 0.00 75 1016.5
20260508033649 16 360 1.6 4.8 0.00 0.00 0.00 75 1016.6
20260508033528 16 360 1.6 6.4 0.00 0.00 0.00 75 1016.7
20260508033449 16 360 1.6 6.4 0.00 0.00 0.00 75 1016.7
20260508033328 16 360 1.6 6.4 0.00 0.00 0.00 75 1016.7
20260508033229 16 360 1.6 6.4 0.00 0.00 0.00 75 1016.8
20260508033130 16 360 3.2 6.4 0.00 0.00 0.00 75 1016.9
20260508033030 16 292 3.2 6.4 0.00 0.00 0.00 75 1017.0
20260508032935 16 360 3.2 6.4 0.00 0.00 0.00 75 1017.1
20260508032834 16 360 4.8 6.4 0.00 0.00 0.00 74 1017.1
20260508032736 16 360 4.8 6.4 0.00 0.00 0.00 74 1017.2
20260508032617 17 360 3.2 6.4 0.00 0.00 0.00 74 1017.2
20260508032518 17 360 3.2 6.4 0.00 0.00 0.00 74 1017.2
20260508032419 17 292 3.2 6.4 0.00 0.00 0.00 74 1017.3
20260508032344 17 360 3.2 6.4 0.00 0.00 0.00 74 1017.2
20260508032243 17 360 3.2 6.4 0.00 0.00 0.00 74 1017.2
20260508032123 17 360 3.2 6.4 0.00 0.00 0.00 74 1017.2
20260508032023 17 360 4.8 6.4 0.00 0.00 0.00 74 1017.2
20260508031924 17 360 3.2 6.4 0.00 0.00 0.00 74 1017.1
20260508031824 17 360 3.2 6.4 0.00 0.00 0.00 74 1017.1
20260508031724 17 360 3.2 4.8 0.00 0.00 0.00 73 1017.0
20260508031629 17 360 3.2 6.4 0.00 0.00 0.00 73 1017.0
20260508031529 17 360 3.2 6.4 0.00 0.00 0.00 73 1017.0
20260508031452 17 360 3.2 6.4 0.00 0.00 0.00 73 1017.0
20260508031331 17 360 3.2 6.4 0.00 0.00 0.00 73 1016.9
20260508031232 17 360 3.2 6.4 0.00 0.00 0.00 73 1017.0
20260508031152 17 360 3.2 6.4 0.00 0.00 0.00 73 1017.0
20260508031033 17 360 3.2 6.4 0.00 0.00 0.00 73 1017.1
20260508030917 17 360 3.2 6.4 0.00 0.00 0.00 73 1017.1
20260508030838 17 360 3.2 6.4 0.00 0.00 0.00 73 1017.1
20260508030718 17 360 3.2 6.4 0.00 0.00 0.00 73 1017.1
20260508030618 17 360 3.2 6.4 0.00 0.00 0.00 73 1017.1
20260508030519 17 360 3.2 6.4 0.00 0.00 0.00 73 1017.1
20260508030440 17 360 3.2 6.4 0.00 0.00 0.00 73 1017.2
20260508030318 17 360 3.2 6.4 0.00 0.00 0.00 73 1017.2
20260508030219 17 360 4.8 6.4 0.00 0.00 0.00 73 1017.1
20260508030123 17 360 4.8 6.4 0.00 0.00 0.00 73 1017.1
20260508030024 17 360 3.2 6.4 0.00 0.00 0.00 73 1016.8
20260508025925 17 360 3.2 6.4 0.00 0.00 0.00 73 1016.7
20260508025847 17 360 1.6 6.4 0.00 0.00 0.00 72 1016.6
20260508025746 17 360 1.6 6.4 0.00 0.00 0.00 73 1016.6
20260508025644 17 360 0.0 3.2 0.00 0.00 0.00 73 1016.5
20260508025523 17 360 0.0 4.8 0.00 0.00 0.00 73 1016.5
20260508025425 17 360 0.0 4.8 0.00 0.00 0.00 73 1016.4
20260508025327 17 360 0.0 4.8 0.00 0.00 0.00 72 1016.4
20260508025228 17 360 0.0 4.8 0.00 0.00 0.00 73 1016.3
20260508025128 17 360 0.0 4.8 0.00 0.00 0.00 72 1016.1
20260508025028 17 360 0.0 4.8 0.00 0.00 0.00 72 1016.2
20260508024928 17 360 1.6 6.4 0.00 0.00 0.00 72 1016.2
20260508024829 17 360 1.6 6.4 0.00 0.00 0.00 72 1016.1
20260508024730 17 74 1.6 6.4 0.00 0.00 0.00 72 1016.1
20260508024654 17 74 3.2 6.4 0.00 0.00 0.00 72 1016.1
20260508024533 17 74 3.2 6.4 0.00 0.00 0.00 72 1016.1
20260508024454 17 360 3.2 6.4 0.00 0.00 0.00 72 1016.1
20260508024333 17 360 3.2 6.4 0.00 0.00 0.00 72 1016.0
20260508024234 17 360 3.2 6.4 0.00 0.00 0.00 72 1016.0
20260508024154 17 360 3.2 6.4 0.00 0.00 0.00 72 1015.9
20260508024034 17 71 3.2 6.4 0.00 0.00 0.00 72 1015.9
20260508023919 17 360 3.2 6.4 0.00 0.00 0.00 72 1015.9
20260508023840 17 360 3.2 6.4 0.00 0.00 0.00 72 1016.0
20260508023720 17 74 3.2 6.4 0.00 0.00 0.00 72 1016.1
20260508023620 17 360 3.2 6.4 0.00 0.00 0.00 72 1016.0
20260508023519 17 73 3.2 6.4 0.00 0.00 0.00 72 1016.0
20260508023420 17 360 3.2 6.4 0.00 0.00 0.00 72 1015.8
20260508023319 17 360 4.8 8.0 0.00 0.00 0.00 72 1015.8
20260508023220 17 360 4.8 8.0 0.00 0.00 0.00 72 1015.6
20260508023124 17 360 3.2 14.5 0.00 0.00 0.00 72 1015.6
20260508023024 17 360 3.2 14.5 0.00 0.00 0.00 72 1015.6
20260508022925 17 360 3.2 14.5 0.00 0.00 0.00 71 1015.6
20260508022826 17 360 3.2 14.5 0.00 0.00 0.00 71 1015.5
20260508022726 17 360 3.2 14.5 0.00 0.00 0.00 71 1015.4
20260508022625 17 360 4.8 14.5 0.00 0.00 0.00 71 1015.4
20260508022525 17 360 4.8 14.5 0.00 0.00 0.00 71 1015.2
20260508022428 17 360 4.8 14.5 0.00 0.00 0.00 71 1015.2
20260508022330 17 360 6.4 14.5 0.00 0.00 0.00 71 1015.2
20260508022250 17 360 6.4 14.5 0.00 0.00 0.00 71 1015.0
20260508022129 17 360 8.0 14.5 0.00 0.00 0.00 71 1014.8
20260508022050 17 360 8.0 14.5 0.00 0.00 0.00 71 1014.7
20260508021950 17 360 8.0 14.5 0.00 0.00 0.00 71 1014.7
20260508021829 17 360 8.0 14.5 0.00 0.00 0.00 71 1014.7
20260508021750 17 360 6.4 12.9 0.00 0.00 0.00 70 1014.6
20260508021628 17 360 6.4 12.9 0.00 0.00 0.00 70 1014.7
20260508021532 17 360 4.8 9.7 0.00 0.00 0.00 70 1014.7
20260508021431 17 360 4.8 9.7 0.00 0.00 0.00 70 1014.8
20260508021332 17 360 4.8 9.7 0.00 0.00 0.00 70 1014.7
20260508021232 17 360 4.8 9.7 0.00 0.00 0.00 70 1014.8
20260508021133 17 360 4.8 9.7 0.00 0.00 0.00 70 1014.7
20260508021034 17 360 4.8 9.7 0.00 0.00 0.00 70 1014.8
20260508020935 17 360 3.2 9.7 0.00 0.00 0.00 70 1014.8
20260508020819 17 360 3.2 8.0 0.00 0.00 0.00 70 1014.8
20260508020719 17 360 3.2 8.0 0.00 0.00 0.00 70 1014.8
20260508020619 17 360 3.2 6.4 0.00 0.00 0.00 70 1014.8
20260508020521 17 360 3.2 8.0 0.00 0.00 0.00 70 1014.9
20260508020420 17 360 3.2 8.0 0.00 0.00 0.00 70 1014.8
20260508020341 17 360 4.8 8.0 0.00 0.00 0.00 70 1014.8
20260508020220 17 360 4.8 8.0 0.00 0.00 0.00 70 1014.8
20260508020120 17 360 4.8 8.0 0.00 0.00 0.00 70 1014.8
20260508020025 17 360 4.8 8.0 0.00 0.00 0.00 70 1014.7
20260508015926 17 360 4.8 9.7 0.00 0.00 0.00 70 1014.7
20260508015827 17 360 4.8 9.7 0.00 0.00 0.00 69 1014.7
20260508015727 17 360 3.2 9.7 0.00 0.00 0.00 69 1014.8
20260508015628 17 360 3.2 9.7 0.00 0.00 0.00 69 1014.8
20260508015527 17 84 3.2 9.7 0.00 0.00 0.00 69 1014.7
20260508015432 17 360 3.2 9.7 0.00 0.00 0.00 69 1014.8
20260508015332 17 360 3.2 9.7 0.00 0.00 0.00 69 1014.8
20260508015232 17 360 3.2 9.7 0.00 0.00 0.00 69 1014.7
20260508015130 17 360 4.8 9.7 0.00 0.00 0.00 69 1014.7
20260508015031 17 360 4.8 9.7 0.00 0.00 0.00 69 1014.6
20260508014932 17 360 4.8 9.7 0.00 0.00 0.00 69 1014.6
20260508014853 17 360 4.8 9.7 0.00 0.00 0.00 69 1014.6
20260508014731 17 360 4.8 12.9 0.00 0.00 0.00 69 1014.5
20260508014652 17 360 3.2 12.9 0.00 0.00 0.00 69 1014.5
20260508014535 17 360 3.2 12.9 0.00 0.00 0.00 69 1014.5
20260508014416 17 360 3.2 12.9 0.00 0.00 0.00 69 1014.4
20260508014337 17 360 3.2 12.9 0.00 0.00 0.00 69 1014.4
20260508014257 17 360 3.2 12.9 0.00 0.00 0.00 69 1014.4
20260508014116 17 360 4.8 14.5 0.00 0.00 0.00 69 1014.5
20260508014017 17 360 6.4 14.5 0.00 0.00 0.00 69 1014.4
20260508013922 17 360 6.4 14.5 0.00 0.00 0.00 69 1014.4
20260508013822 17 360 6.4 14.5 0.00 0.00 0.00 69 1014.3
20260508013722 17 360 8.0 14.5 0.00 0.00 0.00 69 1014.4
20260508013622 17 360 6.4 14.5 0.00 0.00 0.00 69 1014.4
20260508013523 17 360 6.4 14.5 0.00 0.00 0.00 69 1014.4
20260508013424 17 360 8.0 12.9 0.00 0.00 0.00 68 1014.4
20260508013324 17 360 6.4 12.9 0.00 0.00 0.00 68 1014.6
20260508013249 17 360 6.4 12.9 0.00 0.00 0.00 68 1014.6
20260508013127 17 360 6.4 12.9 0.00 0.00 0.00 68 1014.5
20260508013028 17 360 6.4 12.9 0.00 0.00 0.00 68 1014.7
20260508012948 17 360 4.8 12.9 0.00 0.00 0.00 68 1014.7
20260508012828 17 360 4.8 12.9 0.00 0.00 0.00 68 1014.8
20260508012729 17 360 4.8 12.9 0.00 0.00 0.00 68 1014.8
20260508012628 17 360 4.8 12.9 0.00 0.00 0.00 68 1014.9
20260508012529 17 360 4.8 12.9 0.00 0.00 0.00 68 1015.0
20260508012433 17 360 6.4 12.9 0.00 0.00 0.00 68 1015.0
20260508012333 17 360 6.4 12.9 0.00 0.00 0.00 68 1014.9
20260508012233 18 360 6.4 12.9 0.00 0.00 0.00 68 1014.9
20260508012156 18 360 6.4 12.9 0.00 0.00 0.00 67 1014.8
20260508012035 18 360 6.4 12.9 0.00 0.00 0.00 67 1014.8
20260508011916 18 98 6.4 12.9 0.00 0.00 0.00 67 1015.0
20260508011821 18 360 6.4 12.9 0.00 0.00 0.00 67 1015.0
20260508011720 18 360 6.4 12.9 0.00 0.00 0.00 67 1015.1
20260508011621 18 360 6.4 12.9 0.00 0.00 0.00 67 1015.1
20260508011543 18 360 6.4 12.9 0.00 0.00 0.00 67 1015.2
20260508011422 18 360 6.4 12.9 0.00 0.00 0.00 67 1015.2
20260508011323 18 360 6.4 12.9 0.00 0.00 0.00 67 1015.3
20260508011223 18 360 4.8 12.9 0.00 0.00 0.00 67 1015.3
20260508011128 18 85 4.8 12.9 0.00 0.00 0.00 68 1015.3
20260508011027 18 360 4.8 12.9 0.00 0.00 0.00 68 1015.3
20260508010928 18 360 4.8 12.9 0.00 0.00 0.00 68 1015.3
20260508010829 18 360 4.8 12.9 0.00 0.00 0.00 68 1015.3
20260508010730 18 360 6.4 12.9 0.00 0.00 0.00 68 1015.4
20260508010629 18 360 6.4 12.9 0.00 0.00 0.00 68 1015.3
20260508010529 18 11 6.4 9.7 0.00 0.00 0.00 68 1015.4
20260508010429 18 360 6.4 12.9 0.00 0.00 0.00 68 1015.3
20260508010334 18 360 6.4 12.9 0.00 0.00 0.00 68 1015.3
20260508010233 18 360 4.8 12.9 0.00 0.00 0.00 68 1015.3
20260508010134 18 360 4.8 12.9 0.00 0.00 0.00 68 1015.3
20260508010034 18 360 4.8 12.9 0.00 0.00 0.00 68 1015.1
20260508005935 18 360 4.8 12.9 0.00 0.00 0.00 68 1015.1
20260508005818 18 360 6.4 12.9 0.00 0.00 0.00 68 1014.7
20260508005720 18 360 6.4 12.9 0.00 0.00 0.00 68 1014.7
20260508005621 18 360 6.4 12.9 0.00 0.00 0.00 68 1014.6
20260508005522 18 360 6.4 12.9 0.00 0.00 0.00 68 1014.5
20260508005422 18 360 8.0 9.7 0.00 0.00 0.00 68 1014.4
20260508005322 18 360 8.0 9.7 0.00 0.00 0.00 68 1014.5
20260508005223 18 360 8.0 9.7 0.00 0.00 0.00 68 1014.4
20260508005122 18 360 8.0 9.7 0.00 0.00 0.00 68 1014.6
20260508005028 18 360 6.4 9.7 0.00 0.00 0.00 68 1014.6
20260508004927 18 360 6.4 9.7 0.00 0.00 0.00 68 1014.9
20260508004826 18 360 6.4 9.7 0.00 0.00 0.00 68 1015.1
20260508004728 18 360 6.4 12.9 0.00 0.00 0.00 67 1015.1
20260508004628 18 360 6.4 12.9 0.00 0.00 0.00 67 1015.2
20260508004528 18 360 6.4 12.9 0.00 0.00 0.00 67 1015.3
20260508004429 18 360 6.4 12.9 0.00 0.00 0.00 67 1015.3
20260508004334 18 360 6.4 12.9 0.00 0.00 0.00 67 1015.2
20260508004235 18 360 6.4 12.9 0.00 0.00 0.00 67 1015.0
20260508004135 18 66 6.4 12.9 0.00 0.00 0.00 67 1014.9
20260508004035 18 360 8.0 12.9 0.00 0.00 0.00 67 1014.7
20260508003935 18 360 6.4 12.9 0.00 0.00 0.00 67 1014.8
20260508003856 18 360 6.4 9.7 0.00 0.00 0.00 67 1014.8
20260508003719 18 360 4.8 9.7 0.00 0.00 0.00 67 1015.1
20260508003619 18 360 4.8 9.7 0.00 0.00 0.00 67 1015.2
20260508003519 18 360 4.8 9.7 0.00 0.00 0.00 67 1015.3
20260508003440 18 360 4.8 9.7 0.00 0.00 0.00 67 1015.4
20260508003319 18 360 4.8 9.7 0.00 0.00 0.00 67 1015.5
20260508003221 18 360 4.8 9.7 0.00 0.00 0.00 67 1015.4
20260508003121 18 90 4.8 9.7 0.00 0.00 0.00 67 1015.4
20260508003026 18 360 4.8 11.3 0.00 0.00 0.00 67 1015.4
20260508002927 18 360 4.8 11.3 0.00 0.00 0.00 66 1015.4
20260508002828 18 360 4.8 11.3 0.00 0.00 0.00 66 1015.4
20260508002727 18 96 4.8 11.3 0.00 0.00 0.00 67 1015.4
20260508002626 18 360 4.8 8.0 0.00 0.00 0.00 67 1015.3
20260508002526 18 360 4.8 9.7 0.00 0.00 0.00 67 1015.3
20260508002427 18 360 4.8 12.9 0.00 0.00 0.00 67 1015.3
20260508002328 18 360 4.8 12.9 0.00 0.00 0.00 67 1015.3
20260508002232 18 360 4.8 12.9 0.00 0.00 0.00 67 1015.4
20260508002152 18 360 4.8 12.9 0.00 0.00 0.00 67 1015.4
20260508002032 18 360 6.4 9.7 0.00 0.00 0.00 66 1015.5
20260508001935 18 360 6.4 9.7 0.00 0.00 0.00 66 1015.4
20260508001855 18 360 6.4 9.7 0.00 0.00 0.00 66 1015.5
20260508001734 18 360 6.4 9.7 0.00 0.00 0.00 66 1015.5
20260508001635 18 360 6.4 9.7 0.00 0.00 0.00 66 1015.6
20260508001520 18 360 6.4 9.7 0.00 0.00 0.00 66 1015.9
20260508001420 18 360 6.4 12.9 0.00 0.00 0.00 66 1015.9
20260508001341 18 360 4.8 12.9 0.00 0.00 0.00 67 1015.9
20260508001220 18 360 4.8 12.9 0.00 0.00 0.00 66 1015.9
20260508001121 18 28 4.8 12.9 0.00 0.00 0.00 66 1015.8
20260508001021 18 360 6.4 12.9 0.00 0.00 0.00 66 1015.8
20260508000922 18 360 6.4 12.9 0.00 0.00 0.00 66 1015.6
20260508000828 18 360 6.4 12.9 0.00 0.00 0.00 66 1015.6
20260508000748 18 360 8.0 12.9 0.00 0.00 0.00 66 1015.5
20260508000627 18 360 8.0 12.9 0.00 0.00 0.00 65 1015.5
20260508000526 18 360 8.0 12.9 0.00 0.00 0.00 65 1015.5
20260508000450 18 360 6.4 12.9 0.00 0.00 0.00 65 1015.5
20260508000328 18 360 6.4 12.9 0.00 0.00 0.00 65 1015.6
20260508000227 18 360 6.4 12.9 0.00 0.00 0.00 65 1015.6
20260508000132 18 360 4.8 12.9 0.00 0.00 0.00 65 1015.6
20260508000032 19 360 6.4 12.9 0.00 0.00 0.00 65 1015.7
20260507235932 19 360 6.4 12.9 0.00 0.00 0.00 65 1015.8
20260507235832 19 360 6.4 12.9 0.00 0.00 0.00 65 1015.8
20260507235734 19 360 6.4 12.9 0.00 0.00 0.00 65 1015.9
20260507235633 19 360 6.4 12.9 0.00 0.00 0.00 65 1015.9
20260507235518 19 76 6.4 14.5 0.00 0.00 0.00 65 1016.0
20260507235419 19 360 6.4 14.5 0.00 0.00 0.00 65 1016.2
20260507235319 19 360 6.4 14.5 0.00 0.00 0.00 65 1016.1
20260507235240 19 360 6.4 14.5 0.00 0.00 0.00 65 1016.2
20260507235119 19 360 6.4 14.5 0.00 0.00 0.00 65 1016.2
20260507235022 19 360 6.4 14.5 0.00 0.00 0.00 65 1016.2
20260507234922 19 360 8.0 14.5 0.00 0.00 0.00 65 1016.2
20260507234827 19 360 8.0 14.5 0.00 0.00 0.00 65 1016.2
20260507234748 19 360 8.0 14.5 0.00 0.00 0.00 65 1016.2
20260507234626 19 360 8.0 14.5 0.00 0.00 0.00 65 1016.2
20260507234527 19 360 8.0 14.5 0.00 0.00 0.00 65 1016.2
20260507234428 19 360 8.0 14.5 0.00 0.00 0.00 65 1016.2
20260507234328 19 90 8.0 14.5 0.00 0.00 0.00 65 1016.2
20260507234228 19 360 6.4 14.5 0.00 0.00 0.00 65 1016.2
20260507234149 20 360 6.4 14.5 0.00 0.00 0.00 65 1016.2
20260507234032 20 360 8.0 14.5 0.00 0.00 0.00 65 1016.2
20260507233931 20 360 8.0 14.5 0.00 0.00 0.00 65 1016.1
20260507233852 20 79 8.0 14.5 0.00 0.00 0.00 65 1016.3
20260507233731 20 360 8.0 14.5 0.00 0.00 0.00 65 1016.3
20260507233631 20 360 6.4 14.5 0.00 0.00 0.00 65 1016.4
20260507233531 19 360 6.4 14.5 0.00 0.00 0.00 65 1016.4
20260507233431 20 360 8.0 14.5 0.00 0.00 0.00 65 1016.4
20260507233316 19 360 8.0 14.5 0.00 0.00 0.00 65 1016.2
20260507233218 19 360 8.0 14.5 0.00 0.00 0.00 64 1016.2
20260507233118 19 360 8.0 14.5 0.00 0.00 0.00 64 1016.1
20260507233019 19 360 8.0 14.5 0.00 0.00 0.00 64 1016.1
20260507232940 19 360 8.0 14.5 0.00 0.00 0.00 63 1016.2
20260507232841 20 360 8.0 14.5 0.00 0.00 0.00 64 1016.2
20260507232719 20 360 8.0 14.5 0.00 0.00 0.00 64 1016.2
20260507232621 20 360 8.0 14.5 0.00 0.00 0.00 64 1016.2
20260507232546 20 360 8.0 14.5 0.00 0.00 0.00 64 1016.3
20260507232445 20 77 8.0 14.5 0.00 0.00 0.00 64 1016.3
20260507232324 20 360 6.4 14.5 0.00 0.00 0.00 64 1016.3
20260507232225 20 360 6.4 14.5 0.00 0.00 0.00 65 1016.2
20260507232125 20 360 4.8 14.5 0.00 0.00 0.00 65 1016.3
20260507232025 20 360 4.8 14.5 0.00 0.00 0.00 65 1016.3
20260507231926 20 360 4.8 16.1 0.00 0.00 0.00 65 1016.2
20260507231830 20 360 4.8 16.1 0.00 0.00 0.00 65 1016.2
20260507231731 20 360 4.8 16.1 0.00 0.00 0.00 65 1016.2
20260507231631 20 93 6.4 16.1 0.00 0.00 0.00 65 1016.2
20260507231531 20 360 6.4 16.1 0.00 0.00 0.00 65 1016.3
20260507231431 20 347 8.0 16.1 0.00 0.00 0.00 65 1016.2
20260507231330 20 360 8.0 16.1 0.00 0.00 0.00 64 1016.2
20260507231231 20 360 8.0 16.1 0.00 0.00 0.00 64 1016.2
20260507231150 20 360 6.4 16.1 0.00 0.00 0.00 64 1016.2
20260507231034 20 360 6.4 16.1 0.00 0.00 0.00 64 1016.3
20260507230935 20 360 4.8 9.7 0.00 0.00 0.00 64 1016.3
20260507230836 20 360 4.8 9.7 0.00 0.00 0.00 64 1016.2
20260507230736 20 360 4.8 9.7 0.00 0.00 0.00 64 1016.2
20260507230617 20 360 4.8 8.0 0.00 0.00 0.00 64 1016.1
20260507230518 20 360 4.8 8.0 0.00 0.00 0.00 64 1016.0
20260507230422 20 360 4.8 9.7 0.00 0.00 0.00 65 1016.0
20260507230323 20 360 4.8 9.7 0.00 0.00 0.00 65 1016.0
20260507230224 20 360 4.8 9.7 0.00 0.00 0.00 64 1016.0
20260507230123 20 360 4.8 9.7 0.00 0.00 0.00 64 1016.0
20260507230024 20 360 4.8 9.7 0.00 0.00 0.00 64 1016.0
20260507225924 20 360 4.8 9.7 0.00 0.00 0.00 64 1016.0
20260507225829 20 360 4.8 9.7 0.00 0.00 0.00 63 1016.0
20260507225730 20 76 4.8 9.7 0.00 0.00 0.00 63 1016.0
20260507225629 20 360 4.8 9.7 0.00 0.00 0.00 63 1016.1
20260507225530 20 360 4.8 14.5 0.00 0.00 0.00 63 1016.2
20260507225450 20 360 4.8 14.5 0.00 0.00 0.00 63 1016.2
20260507225330 20 360 4.8 16.1 0.00 0.00 0.00 63 1016.4
20260507225230 20 360 4.8 16.1 0.00 0.00 0.00 64 1016.4
20260507225130 20 43 4.8 16.1 0.00 0.00 0.00 64 1016.5
20260507225034 20 360 6.4 16.1 0.00 0.00 0.00 64 1016.5
20260507224934 20 360 8.0 16.1 0.00 0.00 0.00 63 1016.6
20260507224835 20 53 9.7 16.1 0.00 0.00 0.00 63 1016.6
20260507224735 20 41 9.7 16.1 0.00 0.00 0.00 62 1016.6
20260507224635 20 360 11.3 16.1 0.00 0.00 0.00 62 1016.6
20260507224553 20 360 11.3 16.1 0.00 0.00 0.00 62 1016.6
20260507224433 20 360 11.3 16.1 0.00 0.00 0.00 63 1016.6
20260507224317 20 360 9.7 16.1 0.00 0.00 0.00 63 1016.6
20260507224217 20 360 9.7 16.1 0.00 0.00 0.00 63 1016.5
20260507224117 20 360 9.7 17.7 0.00 0.00 0.00 63 1016.5
20260507224020 20 360 8.0 17.7 0.00 0.00 0.00 63 1016.5
20260507223940 20 360 6.4 17.7 0.00 0.00 0.00 63 1016.5
20260507223840 20 360 6.4 17.7 0.00 0.00 0.00 63 1016.5
20260507223719 20 360 8.0 17.7 0.00 0.00 0.00 64 1016.6
20260507223624 20 360 8.0 17.7 0.00 0.00 0.00 63 1016.7
20260507223524 20 360 8.0 17.7 0.00 0.00 0.00 63 1016.6
20260507223424 20 360 8.0 17.7 0.00 0.00 0.00 63 1016.6
20260507223325 20 360 8.0 17.7 0.00 0.00 0.00 65 1016.7
20260507223227 20 360 8.0 16.1 0.00 0.00 0.00 64 1016.7
20260507223127 20 360 8.0 19.3 0.00 0.00 0.00 64 1016.6
20260507223047 20 360 8.0 19.3 0.00 0.00 0.00 64 1016.7
20260507222946 20 360 8.0 19.3 0.00 0.00 0.00 64 1016.7
20260507222830 20 360 8.0 19.3 0.00 0.00 0.00 64 1016.7
20260507222732 20 360 9.7 19.3 0.00 0.00 0.00 63 1016.7
20260507222632 20 360 9.7 19.3 0.00 0.00 0.00 63 1016.7
20260507222531 20 360 9.7 19.3 0.00 0.00 0.00 63 1016.8
20260507222432 20 360 9.7 19.3 0.00 0.00 0.00 63 1016.8
20260507222333 20 53 9.7 19.3 0.00 0.00 0.00 62 1016.9
20260507222218 20 360 8.0 19.3 0.00 0.00 0.00 63 1017.0
20260507222118 20 360 6.4 17.7 0.00 0.00 0.00 65 1017.0
20260507222019 20 360 6.4 17.7 0.00 0.00 0.00 65 1016.8
20260507221940 20 360 4.8 12.9 0.00 0.00 0.00 65 1016.9
20260507221820 20 360 4.8 11.3 0.00 0.00 0.00 65 1016.8
20260507221720 20 360 4.8 11.3 0.00 0.00 0.00 65 1016.8
20260507221641 20 360 4.8 11.3 0.00 0.00 0.00 65 1016.8
20260507221523 20 360 4.8 16.1 0.00 0.00 0.00 65 1016.8
20260507221423 20 360 4.8 16.1 0.00 0.00 0.00 65 1017.0
20260507221323 20 360 6.4 16.1 0.00 0.00 0.00 65 1016.9
20260507221224 20 360 6.4 16.1 0.00 0.00 0.00 65 1016.9
20260507221124 20 360 6.4 16.1 0.00 0.00 0.00 64 1016.9
20260507221024 20 360 6.4 16.1 0.00 0.00 0.00 64 1016.9
20260507220925 20 360 8.0 16.1 0.00 0.00 0.00 65 1016.8
20260507220830 20 360 8.0 16.1 0.00 0.00 0.00 64 1016.8
20260507220730 20 360 9.7 16.1 0.00 0.00 0.00 64 1016.9
20260507220629 20 360 9.7 16.1 0.00 0.00 0.00 64 1016.9
20260507220529 20 360 8.0 14.5 0.00 0.00 0.00 64 1017.0
20260507220450 20 360 8.0 14.5 0.00 0.00 0.00 63 1017.0
20260507220328 20 360 8.0 16.1 0.00 0.00 0.00 64 1017.0
20260507220230 20 360 8.0 16.1 0.00 0.00 0.00 63 1017.0
20260507220151 20 360 8.0 16.1 0.00 0.00 0.00 64 1017.0
20260507220030 20 360 8.0 16.1 0.00 0.00 0.00 64 1017.0
20260507215955 20 360 6.4 20.9 0.00 0.00 0.00 64 1017.0
20260507215833 20 360 6.4 20.9 0.00 0.00 0.00 64 1017.0
20260507215755 20 37 8.0 20.9 0.00 0.00 0.00 64 1017.0
20260507215635 20 360 8.0 20.9 0.00 0.00 0.00 64 1017.0
20260507215535 20 360 9.7 20.9 0.00 0.00 0.00 63 1016.9
20260507215455 20 360 11.3 20.9 0.00 0.00 0.00 63 1016.9
20260507215335 20 360 9.7 20.9 0.00 0.00 0.00 62 1016.9
20260507215254 20 360 11.3 20.9 0.00 0.00 0.00 62 1016.9
20260507215118 20 360 12.9 20.9 0.00 0.00 0.00 62 1016.9
20260507215018 20 360 11.3 19.3 0.00 0.00 0.00 62 1016.9
20260507214918 20 37 11.3 19.3 0.00 0.00 0.00 62 1016.9
20260507214820 20 360 11.3 19.3 0.00 0.00 0.00 62 1016.8
20260507214720 20 360 11.3 19.3 0.00 0.00 0.00 62 1016.8
20260507214620 20 360 11.3 19.3 0.00 0.00 0.00 63 1016.8
20260507214520 20 360 11.3 19.3 0.00 0.00 0.00 63 1016.8
20260507214423 20 360 9.7 19.3 0.00 0.00 0.00 63 1016.9
20260507214344 20 360 9.7 19.3 0.00 0.00 0.00 62 1016.9
20260507214223 20 360 9.7 19.3 0.00 0.00 0.00 62 1016.9
20260507214124 20 360 8.0 19.3 0.00 0.00 0.00 63 1016.9
20260507214023 20 15 8.0 19.3 0.00 0.00 0.00 64 1017.0
20260507213924 20 360 8.0 19.3 0.00 0.00 0.00 63 1017.0
20260507213824 20 360 9.7 19.3 0.00 0.00 0.00 63 1016.9
20260507213725 19 360 9.7 20.9 0.00 0.00 0.00 63 1017.0
20260507213629 19 360 11.3 20.9 0.00 0.00 0.00 63 1017.0
20260507213530 19 360 11.3 20.9 0.00 0.00 0.00 63 1017.0
20260507213430 19 360 11.3 20.9 0.00 0.00 0.00 62 1016.9
20260507213350 19 360 11.3 20.9 0.00 0.00 0.00 62 1016.9
20260507213230 19 360 11.3 20.9 0.00 0.00 0.00 62 1016.8
20260507213129 19 360 11.3 20.9 0.00 0.00 0.00 62 1016.9
20260507213030 19 360 11.3 20.9 0.00 0.00 0.00 62 1016.9
20260507212955 20 360 9.7 20.9 0.00 0.00 0.00 62 1016.9
20260507212834 20 360 11.3 20.9 0.00 0.00 0.00 62 1017.0
20260507212736 20 360 11.3 22.5 0.00 0.00 0.00 62 1016.9
20260507212635 20 360 11.3 22.5 0.00 0.00 0.00 62 1016.9
20260507212536 20 360 12.9 22.5 0.00 0.00 0.00 61 1016.9
20260507212435 20 360 11.3 22.5 0.00 0.00 0.00 61 1017.0
20260507212335 20 360 11.3 22.5 0.00 0.00 0.00 62 1017.0
20260507212220 20 360 11.3 22.5 0.00 0.00 0.00 62 1016.9
20260507212120 20 360 11.3 22.5 0.00 0.00 0.00 62 1016.7
20260507212021 20 360 12.9 22.5 0.00 0.00 0.00 63 1016.7
20260507211921 20 360 12.9 22.5 0.00 0.00 0.00 63 1016.6
20260507211822 19 360 11.3 22.5 0.00 0.00 0.00 63 1016.5
20260507211724 19 360 12.9 22.5 0.00 0.00 0.00 63 1016.6
20260507211644 19 360 12.9 22.5 0.00 0.00 0.00 63 1016.6
20260507211528 19 360 11.3 24.1 0.00 0.00 0.00 63 1016.6
20260507211429 19 360 11.3 24.1 0.00 0.00 0.00 63 1016.8
20260507211350 19 360 11.3 24.1 0.00 0.00 0.00 63 1016.8
20260507211228 19 360 12.9 24.1 0.00 0.00 0.00 62 1016.9
20260507211129 19 360 12.9 24.1 0.00 0.00 0.00 62 1017.0
20260507211030 20 360 12.9 24.1 0.00 0.00 0.00 62 1017.0
20260507210931 20 360 11.3 24.1 0.00 0.00 0.00 62 1017.0
20260507210836 20 360 11.3 24.1 0.00 0.00 0.00 62 1017.1
20260507210735 20 360 11.3 24.1 0.00 0.00 0.00 62 1017.1
20260507210616 20 360 11.3 24.1 0.00 0.00 0.00 64 1017.1
20260507210516 20 360 11.3 24.1 0.00 0.00 0.00 64 1017.0
20260507210417 20 360 9.7 24.1 0.00 0.00 0.00 64 1017.0
20260507210318 19 360 9.7 24.1 0.00 0.00 0.00 64 1017.0
20260507210222 19 360 8.0 24.1 0.00 0.00 0.00 66 1017.0
20260507210142 19 360 9.7 24.1 0.00 0.00 0.00 66 1016.9
20260507210021 19 360 11.3 24.1 0.00 0.00 0.00 66 1016.8
20260507205922 19 360 9.7 24.1 0.00 0.00 0.00 66 1016.8
20260507205824 18 360 11.3 24.1 0.00 0.00 0.00 66 1016.7
20260507205724 18 360 11.3 24.1 0.00 0.00 0.00 66 1016.7
20260507205624 18 360 11.3 24.1 0.00 0.00 0.00 65 1016.7
20260507205529 18 360 11.3 24.1 0.00 0.00 0.00 65 1016.7
20260507205429 18 360 11.3 24.1 0.00 0.00 0.00 65 1016.7
20260507205328 18 360 11.3 24.1 0.00 0.00 0.00 65 1016.8
20260507205248 18 360 12.9 24.1 0.00 0.00 0.00 65 1016.8
20260507205126 18 360 11.3 24.1 0.00 0.00 0.00 66 1016.8
20260507205026 18 360 12.9 24.1 0.00 0.00 0.00 66 1016.8
20260507204927 18 360 12.9 24.1 0.00 0.00 0.00 65 1016.8
20260507204828 18 360 12.9 24.1 0.00 0.00 0.00 65 1016.8
20260507204747 18 360 14.5 24.1 0.00 0.00 0.00 65 1016.8
20260507204632 18 360 16.1 25.7 0.00 0.00 0.00 65 1016.8
20260507204533 18 360 16.1 25.7 0.00 0.00 0.00 66 1016.8
20260507204432 18 360 16.1 25.7 0.00 0.00 0.00 66 1016.8
20260507204332 18 360 16.1 25.7 0.00 0.00 0.00 66 1016.8
20260507204232 18 360 17.7 25.7 0.00 0.00 0.00 65 1016.8
20260507204155 18 360 16.1 25.7 0.00 0.00 0.00 65 1016.9
20260507204035 18 360 16.1 25.7 0.00 0.00 0.00 65 1017.0
20260507203919 18 360 14.5 25.7 0.00 0.00 0.00 65 1017.0
20260507203820 18 360 14.5 25.7 0.00 0.00 0.00 65 1017.0
20260507203721 18 42 14.5 25.7 0.00 0.00 0.00 64 1017.2
20260507203620 18 360 14.5 25.7 0.00 0.00 0.00 64 1017.2
20260507203521 18 360 12.9 22.5 0.00 0.00 0.00 64 1017.2
20260507203421 18 360 12.9 22.5 0.00 0.00 0.00 64 1017.2
20260507203342 18 360 12.9 25.7 0.00 0.00 0.00 64 1017.3
20260507203226 18 360 14.5 25.7 0.00 0.00 0.00 65 1017.3
20260507203127 18 360 14.5 25.7 0.00 0.00 0.00 65 1017.4
20260507203029 18 360 12.9 25.7 0.00 0.00 0.00 65 1017.5
20260507202930 18 360 11.3 25.7 0.00 0.00 0.00 65 1017.5
20260507202831 18 360 11.3 25.7 0.00 0.00 0.00 65 1017.6
20260507202732 18 360 11.3 25.7 0.00 0.00 0.00 65 1017.7
20260507202616 18 360 9.7 25.7 0.00 0.00 0.00 66 1017.6
20260507202517 18 360 9.7 25.7 0.00 0.00 0.00 66 1017.7
20260507202434 18 47 9.7 20.9 0.00 0.00 0.00 66 1017.7
20260507202337 18 360 11.3 20.9 0.00 0.00 0.00 66 1017.7
20260507202238 18 360 11.3 20.9 0.00 0.00 0.00 66 1017.6
20260507202118 18 360 11.3 20.9 0.00 0.00 0.00 65 1017.6
20260507202018 18 360 11.3 20.9 0.00 0.00 0.00 66 1017.6
20260507201918 18 360 11.3 20.9 0.00 0.00 0.00 66 1017.6
20260507201824 18 360 11.3 20.9 0.00 0.00 0.00 66 1017.7
20260507201744 18 360 11.3 22.5 0.00 0.00 0.00 66 1017.7
20260507201623 18 360 11.3 22.5 0.00 0.00 0.00 66 1017.7
20260507201544 18 360 9.7 22.5 0.00 0.00 0.00 66 1017.7
20260507201424 18 360 11.3 22.5 0.00 0.00 0.00 66 1017.6
20260507201324 18 360 11.3 22.5 0.00 0.00 0.00 66 1017.5
20260507201225 18 360 12.9 22.5 0.00 0.00 0.00 66 1017.6
20260507201131 18 360 12.9 25.7 0.00 0.00 0.00 66 1017.6
20260507201051 18 360 14.5 25.7 0.00 0.00 0.00 66 1017.6
20260507200931 18 360 14.5 25.7 0.00 0.00 0.00 66 1017.7
20260507200832 18 360 16.1 25.7 0.00 0.00 0.00 66 1017.6
20260507200752 18 360 16.1 25.7 0.00 0.00 0.00 66 1017.7
20260507200632 18 360 16.1 25.7 0.00 0.00 0.00 66 1017.6
20260507200533 18 360 14.5 25.7 0.00 0.00 0.00 66 1017.7
20260507200417 18 360 14.5 25.7 0.00 0.00 0.00 66 1017.7
20260507200317 18 360 14.5 25.7 0.00 0.00 0.00 66 1017.8
20260507200219 18 360 14.5 25.7 0.00 0.00 0.00 67 1017.7
20260507200119 18 360 14.5 25.7 0.00 0.00 0.00 67 1017.8
20260507200020 19 360 14.5 24.1 0.00 0.00 0.00 67 1017.7
20260507195941 18 360 14.5 24.1 0.00 0.00 0.00 67 1017.6
20260507195822 18 323 14.5 24.1 0.00 0.00 0.00 67 1017.5
20260507195741 19 360 12.9 24.1 0.00 0.00 0.00 67 1017.5
20260507195625 19 360 12.9 24.1 0.00 0.00 0.00 67 1017.4
20260507195526 19 360 12.9 24.1 0.00 0.00 0.00 67 1017.4
20260507195425 19 360 12.9 24.1 0.00 0.00 0.00 67 1017.4
20260507195326 19 360 12.9 24.1 0.00 0.00 0.00 67 1017.4
20260507195227 18 360 11.3 24.1 0.00 0.00 0.00 67 1017.4
20260507195127 18 360 12.9 24.1 0.00 0.00 0.00 67 1017.4
20260507195028 18 360 12.9 24.1 0.00 0.00 0.00 67 1017.4
20260507194932 18 360 12.9 20.9 0.00 0.00 0.00 67 1017.6
20260507194833 18 360 12.9 20.9 0.00 0.00 0.00 67 1017.7
20260507194733 18 360 11.3 20.9 0.00 0.00 0.00 67 1017.9
20260507194634 18 360 11.3 24.1 0.00 0.00 0.00 67 1018.0
20260507194534 18 360 11.3 24.1 0.00 0.00 0.00 67 1018.0
20260507194435 18 360 11.3 24.1 0.00 0.00 0.00 67 1018.1
20260507194319 18 360 11.3 24.1 0.00 0.00 0.00 66 1018.0
20260507194220 18 360 11.3 24.1 0.00 0.00 0.00 67 1018.0
20260507194140 18 360 11.3 24.1 0.00 0.00 0.00 67 1018.0
20260507194019 18 360 12.9 24.1 0.00 0.00 0.00 68 1017.9
20260507193919 18 360 12.9 24.1 0.00 0.00 0.00 68 1017.9
20260507193819 18 360 12.9 24.1 0.00 0.00 0.00 68 1017.9
20260507193719 18 360 12.9 24.1 0.00 0.00 0.00 68 1017.8
20260507193621 18 360 14.5 24.1 0.00 0.00 0.00 68 1017.8
20260507193526 18 360 14.5 24.1 0.00 0.00 0.00 68 1017.9
20260507193425 18 360 14.5 24.1 0.00 0.00 0.00 68 1017.9
20260507193326 18 360 12.9 24.1 0.00 0.00 0.00 68 1017.8
20260507193225 18 360 11.3 24.1 0.00 0.00 0.00 68 1017.9
20260507193126 18 49 11.3 22.5 0.00 0.00 0.00 68 1017.9
20260507193026 18 360 9.7 22.5 0.00 0.00 0.00 68 1017.8
20260507192926 18 360 9.7 22.5 0.00 0.00 0.00 69 1017.8
20260507192830 18 360 8.0 19.3 0.00 0.00 0.00 70 1017.8
20260507192753 18 64 8.0 17.7 0.00 0.00 0.00 70 1017.9
20260507192630 18 360 8.0 17.7 0.00 0.00 0.00 70 1018.0
20260507192552 18 360 9.7 17.7 0.00 0.00 0.00 70 1017.9
20260507192433 18 360 9.7 17.7 0.00 0.00 0.00 70 1018.0
20260507192353 18 360 9.7 17.7 0.00 0.00 0.00 71 1018.0
20260507192232 18 360 9.7 17.7 0.00 0.00 0.00 71 1018.0
20260507192116 18 360 9.7 17.7 0.00 0.00 0.00 70 1018.2
20260507192017 18 360 9.7 17.7 0.00 0.00 0.00 71 1018.2
20260507191918 18 360 8.0 16.1 0.00 0.00 0.00 71 1018.2
20260507191839 18 360 8.0 16.1 0.00 0.00 0.00 71 1018.3
20260507191717 18 360 8.0 16.1 0.00 0.00 0.00 71 1018.3
20260507191618 17 360 8.0 16.1 0.00 0.00 0.00 71 1018.3
20260507191519 17 360 8.0 16.1 0.00 0.00 0.00 71 1018.2
20260507191439 17 360 6.4 16.1 0.00 0.00 0.00 72 1018.2
20260507191323 17 360 6.4 16.1 0.00 0.00 0.00 72 1018.2
20260507191223 17 360 8.0 16.1 0.00 0.00 0.00 72 1018.2
20260507191124 17 360 8.0 16.1 0.00 0.00 0.00 72 1018.2
20260507191045 17 360 8.0 16.1 0.00 0.00 0.00 72 1018.2
20260507190924 17 360 8.0 16.1 0.00 0.00 0.00 72 1018.2
20260507190824 17 360 8.0 16.1 0.00 0.00 0.00 72 1018.1
20260507190723 17 360 8.0 16.1 0.00 0.00 0.00 72 1018.1
20260507190628 17 360 8.0 14.5 0.00 0.00 0.00 72 1018.1
20260507190529 17 360 8.0 14.5 0.00 0.00 0.00 72 1018.2
20260507190430 17 360 6.4 14.5 0.00 0.00 0.00 73 1018.2
20260507190330 17 360 6.4 12.9 0.00 0.00 0.00 73 1018.2
20260507190230 17 360 4.8 12.9 0.00 0.00 0.00 73 1018.4
20260507190131 17 360 6.4 14.5 0.00 0.00 0.00 73 1018.4
20260507190031 17 360 4.8 14.5 0.00 0.00 0.00 73 1018.5
20260507185935 17 70 6.4 19.3 0.00 0.00 0.00 72 1018.4
20260507185834 17 360 6.4 19.3 0.00 0.00 0.00 72 1018.3
20260507185736 17 360 8.0 19.3 0.00 0.00 0.00 72 1018.1
20260507185656 17 360 8.0 19.3 0.00 0.00 0.00 72 1018.0
20260507185535 17 360 9.7 19.3 0.00 0.00 0.00 72 1018.0
20260507185416 17 82 11.3 19.3 0.00 0.00 0.00 72 1018.0
20260507185319 17 360 11.3 19.3 0.00 0.00 0.00 72 1018.1
20260507185220 17 360 11.3 19.3 0.00 0.00 0.00 71 1018.0
20260507185121 17 360 11.3 19.3 0.00 0.00 0.00 71 1018.0
20260507185021 17 66 11.3 19.3 0.00 0.00 0.00 71 1018.0
20260507184943 17 360 11.3 17.7 0.00 0.00 0.00 71 1018.0
20260507184816 17 360 9.7 17.7 0.00 0.00 0.00 71 1018.2
20260507184717 17 360 11.3 17.7 0.00 0.00 0.00 71 1018.3
20260507184622 17 360 11.3 17.7 0.00 0.00 0.00 71 1018.3
20260507184521 17 360 11.3 17.7 0.00 0.00 0.00 71 1018.4
20260507184443 17 360 11.3 17.7 0.00 0.00 0.00 71 1018.4
20260507184316 17 360 9.7 17.7 0.00 0.00 0.00 72 1018.5
20260507184216 17 360 9.7 17.7 0.00 0.00 0.00 72 1018.5
20260507184118 17 360 9.7 17.7 0.00 0.00 0.00 72 1018.6
20260507184023 17 360 9.7 17.7 0.00 0.00 0.00 72 1018.7
20260507183921 17 360 9.7 17.7 0.00 0.00 0.00 72 1018.7
20260507183822 17 70 9.7 17.7 0.00 0.00 0.00 72 1018.6
20260507183723 17 360 11.3 17.7 0.00 0.00 0.00 72 1018.6
20260507183643 17 360 11.3 19.3 0.00 0.00 0.00 72 1018.5
20260507183523 17 360 11.3 19.3 0.00 0.00 0.00 72 1018.6
20260507183444 17 360 11.3 19.3 0.00 0.00 0.00 72 1018.6
20260507183343 17 360 11.3 19.3 0.00 0.00 0.00 72 1018.6
20260507183223 17 360 11.3 19.3 0.00 0.00 0.00 71 1018.6
20260507183128 17 360 11.3 19.3 0.00 0.00 0.00 72 1018.6
20260507183028 17 360 9.7 19.3 0.00 0.00 0.00 72 1018.6
20260507182928 17 360 9.7 19.3 0.00 0.00 0.00 72 1018.6
20260507182849 17 91 9.7 19.3 0.00 0.00 0.00 72 1018.7
20260507182726 17 360 9.7 19.3 0.00 0.00 0.00 72 1018.6
20260507182648 17 360 8.0 22.5 0.00 0.00 0.00 72 1018.6
20260507182547 17 360 9.7 22.5 0.00 0.00 0.00 72 1018.6
20260507182447 17 360 9.7 22.5 0.00 0.00 0.00 72 1018.6
20260507182326 17 360 9.7 22.5 0.00 0.00 0.00 72 1018.8
20260507182230 17 360 9.7 22.5 0.00 0.00 0.00 72 1018.8
20260507182150 17 360 9.7 22.5 0.00 0.00 0.00 72 1018.8
20260507182030 17 360 11.3 22.5 0.00 0.00 0.00 72 1018.8
20260507181930 17 360 11.3 22.5 0.00 0.00 0.00 73 1018.8
20260507181831 17 360 9.7 22.5 0.00 0.00 0.00 73 1018.8
20260507181732 17 360 9.7 19.3 0.00 0.00 0.00 73 1018.7
20260507181652 17 360 8.0 16.1 0.00 0.00 0.00 72 1018.7
20260507181517 17 360 9.7 17.7 0.00 0.00 0.00 73 1018.6
20260507181418 17 360 8.0 17.7 0.00 0.00 0.00 73 1018.6
20260507181318 17 360 8.0 24.1 0.00 0.00 0.00 73 1018.6
20260507181218 17 360 8.0 24.1 0.00 0.00 0.00 73 1018.7
20260507181119 17 360 8.0 24.1 0.00 0.00 0.00 73 1018.7
20260507181019 17 360 9.7 24.1 0.00 0.00 0.00 72 1018.8
20260507180920 17 360 11.3 24.1 0.00 0.00 0.00 73 1018.8
20260507180824 17 360 11.3 24.1 0.00 0.00 0.00 73 1018.8
20260507180724 17 12 12.9 24.1 0.00 0.00 0.00 73 1018.7
20260507180625 17 360 12.9 24.1 0.00 0.00 0.00 73 1018.6
20260507180525 17 360 12.9 24.1 0.00 0.00 0.00 73 1018.5
20260507180426 17 360 12.9 22.5 0.00 0.00 0.00 74 1018.4
20260507180345 17 360 11.3 22.5 0.00 0.00 0.00 74 1018.4
20260507180224 17 360 9.7 19.3 0.00 0.00 0.00 73 1018.4
20260507180129 17 360 9.7 19.3 0.00 0.00 0.00 74 1018.4
20260507180029 17 360 8.0 19.3 0.00 0.00 0.00 74 1018.4
20260507175929 17 360 8.0 19.3 0.00 0.00 0.00 75 1018.5
20260507175830 17 360 8.0 19.3 0.00 0.00 0.00 75 1018.4
20260507175730 16 360 9.7 20.9 0.00 0.00 0.00 75 1018.4
20260507175630 16 360 9.7 20.9 0.00 0.00 0.00 74 1018.5
20260507175534 16 360 11.3 20.9 0.00 0.00 0.00 75 1018.5
20260507175435 16 360 11.3 20.9 0.00 0.00 0.00 75 1018.4
20260507175334 16 360 9.7 20.9 0.00 0.00 0.00 76 1018.6
20260507175236 16 360 9.7 20.9 0.00 0.00 0.00 76 1018.6
20260507175136 16 360 9.7 20.9 0.00 0.00 0.00 76 1018.6
20260507175056 16 360 9.7 20.9 0.00 0.00 0.00 75 1018.5
20260507174935 16 360 11.3 20.9 0.00 0.00 0.00 75 1018.4
20260507174819 16 360 11.3 19.3 0.00 0.00 0.00 76 1018.2
20260507174740 16 360 11.3 19.3 0.00 0.00 0.00 76 1018.3
20260507174620 16 360 11.3 19.3 0.00 0.00 0.00 76 1018.3
20260507174520 16 360 9.7 19.3 0.00 0.00 0.00 76 1018.3
20260507174420 16 360 9.7 19.3 0.00 0.00 0.00 76 1018.3
20260507174322 16 360 9.7 19.3 0.00 0.00 0.00 76 1018.3
20260507174243 16 360 9.7 19.3 0.00 0.00 0.00 77 1018.4
20260507174127 16 360 9.7 19.3 0.00 0.00 0.00 76 1018.4
20260507174028 16 360 12.9 19.3 0.00 0.00 0.00 76 1018.4
20260507173929 16 360 12.9 20.9 0.00 0.00 0.00 76 1018.3
20260507173830 16 360 11.3 20.9 0.00 0.00 0.00 76 1018.3
20260507173731 16 360 11.3 20.9 0.00 0.00 0.00 76 1018.1
20260507173631 16 360 11.3 20.9 0.00 0.00 0.00 76 1018.1
20260507173531 16 360 11.3 20.9 0.00 0.00 0.00 76 1018.2
20260507173416 16 360 12.9 20.9 0.00 0.00 0.00 77 1018.4
20260507173336 16 360 12.9 20.9 0.00 0.00 0.00 77 1018.4
20260507173236 16 360 12.9 20.9 0.00 0.00 0.00 77 1018.5
20260507173135 16 360 11.3 20.9 0.00 0.00 0.00 77 1018.5
20260507173016 16 360 9.7 17.7 0.00 0.00 0.00 76 1018.6
20260507172916 16 360 8.0 14.5 0.00 0.00 0.00 77 1018.6
20260507172822 16 360 8.0 14.5 0.00 0.00 0.00 77 1018.6
20260507172721 16 360 6.4 14.5 0.00 0.00 0.00 77 1018.7
20260507172621 16 360 6.4 14.5 0.00 0.00 0.00 77 1018.7
20260507172522 16 360 8.0 16.1 0.00 0.00 0.00 78 1018.6
20260507172422 16 360 6.4 16.1 0.00 0.00 0.00 78 1018.6
20260507172323 16 360 8.0 16.1 0.00 0.00 0.00 78 1018.7
20260507172224 16 360 8.0 16.1 0.00 0.00 0.00 78 1018.7
20260507172129 16 360 8.0 16.1 0.00 0.00 0.00 78 1018.7
20260507172049 16 360 8.0 16.1 0.00 0.00 0.00 78 1018.7
20260507171929 16 360 8.0 16.1 0.00 0.00 0.00 78 1018.7
20260507171827 16 78 6.4 16.1 0.00 0.00 0.00 78 1018.7
20260507171727 16 360 6.4 16.1 0.00 0.00 0.00 78 1018.6
20260507171648 16 360 6.4 16.1 0.00 0.00 0.00 78 1018.6
20260507171527 15 360 8.0 16.1 0.00 0.00 0.00 78 1018.7
20260507171428 15 79 9.7 16.1 0.00 0.00 0.00 78 1018.7
20260507171330 15 360 9.7 16.1 0.00 0.00 0.00 78 1018.7
20260507171231 15 360 9.7 16.1 0.00 0.00 0.00 77 1018.8
20260507171131 15 360 9.7 16.1 0.00 0.00 0.00 77 1018.7
20260507171031 15 360 8.0 16.1 0.00 0.00 0.00 79 1018.8
20260507170932 16 360 8.0 17.7 0.00 0.00 0.00 79 1018.8
20260507170832 15 37 6.4 17.7 0.00 0.00 0.00 78 1018.9
20260507170717 15 360 6.4 17.7 0.00 0.00 0.00 78 1018.9
20260507170618 15 360 6.4 17.7 0.00 0.00 0.00 79 1018.9
20260507170538 15 360 8.0 17.7 0.00 0.00 0.00 79 1018.8
20260507170418 15 360 9.7 17.7 0.00 0.00 0.00 79 1018.7
20260507170317 15 360 9.7 17.7 0.00 0.00 0.00 79 1018.6
20260507170219 15 360 9.7 17.7 0.00 0.00 0.00 79 1018.7
20260507170139 15 360 9.7 17.7 0.00 0.00 0.00 79 1018.7
20260507170019 16 360 8.0 17.7 0.00 0.00 0.00 79 1018.8
20260507165943 16 360 9.7 17.7 0.00 0.00 0.00 79 1018.8
20260507165844 16 360 11.3 17.7 0.00 0.00 0.00 79 1018.8
20260507165716 16 360 9.7 17.7 0.00 0.00 0.00 79 1018.7
20260507165637 16 360 9.7 17.7 0.00 0.00 0.00 78 1018.7
20260507165516 16 360 8.0 17.7 0.00 0.00 0.00 79 1018.8
20260507165417 16 360 8.0 17.7 0.00 0.00 0.00 79 1019.1
20260507165318 16 360 9.7 17.7 0.00 0.00 0.00 79 1019.1
20260507165238 16 360 9.7 17.7 0.00 0.00 0.00 79 1019.1
20260507165203 16 44 9.7 17.7 0.00 0.00 0.00 79 1019.1
20260507165104 16 360 8.0 17.7 0.00 0.00 0.00 80 1019.2
20260507164916 15 360 8.0 17.7 0.00 0.00 0.00 80 1019.1
20260507164816 15 360 8.0 19.3 0.00 0.00 0.00 80 1019.1
20260507164717 15 360 9.7 20.9 0.00 0.00 0.00 80 1019.2
20260507164617 15 20 9.7 20.9 0.00 0.00 0.00 80 1019.2
20260507164518 15 360 9.7 20.9 0.00 0.00 0.00 80 1019.2
20260507164423 15 360 9.7 20.9 0.00 0.00 0.00 80 1019.1
20260507164324 15 360 9.7 20.9 0.00 0.00 0.00 80 1019.1
20260507164224 15 360 9.7 20.9 0.00 0.00 0.00 80 1019.1
20260507164125 15 360 9.7 20.9 0.00 0.00 0.00 80 1019.0
20260507164026 15 45 8.0 20.9 0.00 0.00 0.00 80 1019.0
20260507163927 15 360 8.0 20.9 0.00 0.00 0.00 80 1019.0
20260507163831 15 360 8.0 20.9 0.00 0.00 0.00 80 1019.0
20260507163732 15 360 8.0 20.9 0.00 0.00 0.00 80 1019.0
20260507163634 15 360 9.7 20.9 0.00 0.00 0.00 80 1018.9
20260507163534 15 51 11.3 20.9 0.00 0.00 0.00 80 1019.0
20260507163454 15 360 9.7 20.9 0.00 0.00 0.00 81 1019.0
20260507163354 15 360 9.7 19.3 0.00 0.00 0.00 81 1018.9
20260507163234 15 360 8.0 19.3 0.00 0.00 0.00 81 1018.8
20260507163119 15 360 8.0 19.3 0.00 0.00 0.00 81 1018.7
20260507163019 15 360 6.4 20.9 0.00 0.00 0.00 81 1018.9
20260507162940 15 360 6.4 20.9 0.00 0.00 0.00 81 1019.1
20260507162820 15 360 6.4 20.9 0.00 0.00 0.00 82 1019.1
20260507162741 15 360 8.0 20.9 0.00 0.00 0.00 81 1019.1
20260507162620 15 360 9.7 20.9 0.00 0.00 0.00 81 1019.1
20260507162521 15 56 9.7 24.1 0.00 0.00 0.00 81 1019.2
20260507162421 15 360 11.3 24.1 0.00 0.00 0.00 82 1019.3
20260507162344 15 360 9.7 25.7 0.00 0.00 0.00 82 1019.3
20260507162224 15 360 9.7 25.7 0.00 0.00 0.00 81 1019.3
20260507162124 15 360 9.7 25.7 0.00 0.00 0.00 82 1019.4
20260507162025 15 360 11.3 25.7 0.00 0.00 0.00 82 1019.4
20260507161925 15 360 12.9 25.7 0.00 0.00 0.00 82 1019.4
20260507161826 15 360 14.5 25.7 0.00 0.00 0.00 82 1019.3
20260507161725 15 360 12.9 25.7 0.00 0.00 0.00 82 1019.2
20260507161630 15 360 12.9 25.7 0.00 0.00 0.00 82 1019.2
20260507161530 15 360 12.9 25.7 0.00 0.00 0.00 82 1019.1
20260507161430 15 360 14.5 25.7 0.00 0.00 0.00 82 1019.0
20260507161331 15 360 16.1 25.7 0.00 0.00 0.00 82 1018.8
20260507161232 15 360 16.1 25.7 0.00 0.00 0.00 82 1019.0
20260507161133 15 360 16.1 22.5 0.00 0.00 0.00 82 1019.1
20260507161017 15 360 14.5 22.5 0.00 0.00 0.00 82 1019.3
20260507160918 15 360 14.5 24.1 0.00 0.00 0.00 82 1019.4
20260507160818 15 360 12.9 24.1 0.00 0.00 0.00 82 1019.6
20260507160719 15 18 12.9 24.1 0.00 0.00 0.00 82 1019.8
20260507160620 15 360 12.9 24.1 0.00 0.00 0.00 82 1019.9
20260507160521 15 360 12.9 24.1 0.00 0.00 0.00 82 1020.1
20260507160427 15 360 12.9 24.1 0.00 0.00 0.00 82 1020.1
20260507160327 15 360 14.5 24.1 0.00 0.00 0.00 82 1020.1
20260507160226 15 360 14.5 24.1 0.00 0.00 0.00 82 1020.1
20260507160124 15 360 14.5 24.1 0.00 0.00 0.00 82 1020.1
20260507160045 15 360 12.9 22.5 0.00 0.00 0.00 82 1020.1
20260507155925 15 360 12.9 22.5 0.00 0.00 0.00 83 1020.1
20260507155827 15 360 12.9 20.9 0.00 0.00 0.00 83 1020.1
20260507155747 15 360 14.5 20.9 0.00 0.00 0.00 83 1019.7
20260507155625 15 360 12.9 20.9 0.00 0.00 0.00 83 1019.7
20260507155530 15 360 12.9 20.9 0.00 0.00 0.00 83 1019.7
20260507155430 15 360 12.9 20.9 0.00 0.00 0.00 83 1019.5
20260507155331 15 360 11.3 20.9 0.00 0.00 0.00 83 1019.5
20260507155232 15 360 9.7 17.7 0.00 0.00 0.00 83 1019.3
20260507155132 15 360 8.0 17.7 0.00 0.00 0.00 83 1019.3
20260507155032 15 360 8.0 17.7 0.00 0.00 0.00 83 1019.1
20260507154917 15 360 8.0 22.5 0.00 0.00 0.00 83 1019.1
20260507154818 15 360 8.0 22.5 0.00 0.00 0.00 83 1019.1
20260507154719 15 360 9.7 22.5 0.00 0.00 0.00 83 1019.1
20260507154619 15 360 11.3 22.5 0.00 0.00 0.00 83 1019.2
20260507154520 15 360 11.3 22.5 0.00 0.00 0.00 83 1019.3
20260507154420 15 50 12.9 22.5 0.00 0.00 0.00 83 1019.3
20260507154324 15 360 12.9 22.5 0.00 0.00 0.00 83 1019.3
20260507154225 15 360 12.9 22.5 0.00 0.00 0.00 83 1019.4
20260507154126 15 360 12.9 22.5 0.00 0.00 0.00 83 1019.4
20260507154027 15 360 14.5 22.5 0.00 0.00 0.00 84 1019.3
20260507153948 15 360 14.5 22.5 0.00 0.00 0.00 84 1019.4
20260507153826 15 360 14.5 22.5 0.00 0.00 0.00 84 1019.4
20260507153727 15 360 14.5 22.5 0.00 0.00 0.00 84 1019.4
20260507153631 15 360 14.5 22.5 0.00 0.00 0.00 84 1019.4
20260507153532 15 360 14.5 22.5 0.00 0.00 0.00 84 1019.4
20260507153428 15 360 14.5 22.5 0.00 0.00 0.00 84 1019.4
20260507153329 15 360 14.5 22.5 0.00 0.00 0.00 84 1019.5
20260507153231 15 360 14.5 22.5 0.00 0.00 0.00 84 1019.6
20260507153132 15 360 12.9 22.5 0.00 0.00 0.00 84 1019.5
20260507153031 15 360 12.9 22.5 0.00 0.00 0.00 84 1019.5
20260507152956 15 360 11.3 22.5 0.00 0.00 0.00 84 1019.6
20260507152817 15 360 9.7 19.3 0.00 0.00 0.00 84 1019.5
20260507152717 15 360 11.3 19.3 0.00 0.00 0.00 84 1019.6
20260507152618 15 360 11.3 17.7 0.00 0.00 0.00 84 1019.5
20260507152518 15 360 9.7 16.1 0.00 0.00 0.00 85 1019.5
20260507152418 15 360 8.0 16.1 0.00 0.00 0.00 85 1019.5
20260507152338 15 360 6.4 22.5 0.00 0.00 0.00 85 1019.3
20260507152242 15 360 8.0 22.5 0.00 0.00 0.00 85 1019.3
20260507152115 15 360 8.0 25.7 0.00 0.00 0.00 85 1019.3
20260507152016 15 360 6.4 25.7 0.00 0.00 0.00 85 1019.3
20260507151918 15 360 8.0 25.7 0.00 0.00 0.00 85 1019.4
20260507151818 15 360 8.0 25.7 0.00 0.00 0.00 85 1019.4
20260507151738 15 360 11.3 25.7 0.00 0.00 0.00 85 1019.4
20260507151618 15 360 12.9 25.7 0.00 0.00 0.00 85 1019.4
20260507151542 15 360 14.5 25.7 0.00 0.00 0.00 84 1019.4
20260507151416 15 360 16.1 25.7 0.00 0.00 0.00 84 1019.6
20260507151316 15 360 17.7 25.7 0.00 0.00 0.00 84 1019.5
20260507151217 15 360 16.1 25.7 0.00 0.00 0.00 84 1019.5
20260507151117 15 360 14.5 25.7 0.00 0.00 0.00 84 1019.4
20260507151018 15 360 16.1 25.7 0.00 0.00 0.00 84 1019.6
20260507150917 15 360 14.5 25.7 0.00 0.00 0.00 84 1019.4
20260507150822 15 360 16.1 29.0 0.00 0.00 0.00 84 1019.4
20260507150742 15 360 16.1 29.0 0.00 0.00 0.00 84 1019.4
20260507150616 15 360 14.5 29.0 0.00 0.00 0.00 84 1019.3
20260507150516 15 360 14.5 29.0 0.00 0.00 0.00 84 1019.3
20260507150437 15 360 14.5 29.0 0.00 0.00 0.00 84 1019.3
20260507150336 15 11 14.5 29.0 0.00 0.00 0.00 84 1019.3
20260507150258 15 360 16.1 29.0 0.00 0.00 0.00 84 1019.3
20260507150156 15 360 17.7 29.0 0.00 0.00 0.00 84 1019.4
20260507150020 15 360 17.7 27.4 0.00 0.00 0.00 84 1019.3
20260507145940 15 360 16.1 27.4 0.00 0.00 0.00 84 1019.4
20260507145841 15 360 14.5 27.4 0.00 0.00 0.00 84 1019.3
20260507145721 15 360 12.9 25.7 0.00 0.00 0.00 84 1019.3
20260507145620 15 360 11.3 25.7 0.00 0.00 0.00 84 1019.3
20260507145541 15 360 11.3 25.7 0.00 0.00 0.00 85 1019.4
20260507145421 15 360 12.9 25.7 0.00 0.00 0.00 85 1019.4
20260507145321 15 360 14.5 25.7 0.00 0.00 0.00 85 1019.4
20260507145227 15 360 14.5 25.7 0.00 0.00 0.00 85 1019.4
20260507145127 15 360 14.5 25.7 0.00 0.00 0.00 85 1019.4
20260507145027 15 360 14.5 25.7 0.00 0.00 0.00 85 1019.4
20260507144927 15 360 14.5 25.7 0.00 0.00 0.00 85 1019.3
20260507144827 15 360 14.5 25.7 0.00 0.00 0.00 85 1019.4
20260507144747 15 360 12.9 25.7 0.00 0.00 0.00 85 1019.4
20260507144625 15 360 11.3 22.5 0.00 0.00 0.00 85 1019.5
20260507144531 15 360 12.9 22.5 0.00 0.00 0.00 85 1019.5
20260507144431 15 360 14.5 22.5 0.00 0.00 0.00 85 1019.5
20260507144331 15 360 12.9 22.5 0.00 0.00 0.00 85 1019.5
20260507144232 15 360 11.3 20.9 0.00 0.00 0.00 85 1019.6
20260507144152 15 360 9.7 20.9 0.00 0.00 0.00 85 1019.5
20260507144032 15 360 11.3 20.9 0.00 0.00 0.00 85 1019.5
20260507143932 15 360 12.9 20.9 0.00 0.00 0.00 85 1019.6
20260507143816 15 360 12.9 20.9 0.00 0.00 0.00 85 1019.6
20260507143717 15 360 11.3 19.3 0.00 0.00 0.00 85 1019.7
20260507143617 15 360 9.7 19.3 0.00 0.00 0.00 85 1019.7
20260507143539 15 360 8.0 19.3 0.00 0.00 0.00 85 1019.7
20260507143416 15 360 8.0 19.3 0.00 0.00 0.00 85 1019.7
20260507143337 15 360 8.0 19.3 0.00 0.00 0.00 85 1019.8
20260507143217 15 360 9.7 19.3 0.00 0.00 0.00 85 1019.7
20260507143117 14 360 11.3 19.3 0.00 0.00 0.00 85 1019.7
20260507143038 15 360 12.9 19.3 0.00 0.00 0.00 85 1019.7
20260507142922 15 360 11.3 19.3 0.00 0.00 0.00 85 1019.7
20260507142823 15 360 9.7 17.7 0.00 0.00 0.00 85 1019.8
20260507142743 15 360 8.0 17.7 0.00 0.00 0.00 85 1019.9
20260507142621 15 360 6.4 16.1 0.00 0.00 0.00 85 1019.8
20260507142543 15 360 6.4 16.1 0.00 0.00 0.00 85 1019.8
20260507142416 15 360 8.0 16.1 0.00 0.00 0.00 85 1019.9
20260507142316 15 360 8.0 16.1 0.00 0.00 0.00 85 1019.8
20260507142221 15 360 8.0 16.1 0.00 0.00 0.00 85 1019.9
20260507142121 14 360 8.0 16.1 0.00 0.00 0.00 85 1019.8
20260507142021 14 360 9.7 22.5 0.00 0.00 0.00 85 1019.8
20260507141942 14 360 9.7 22.5 0.00 0.00 0.00 85 1019.8
20260507141821 14 360 9.7 22.5 0.00 0.00 0.00 85 1019.7
20260507141721 14 360 8.0 22.5 0.00 0.00 0.00 85 1019.7
20260507141622 14 360 6.4 22.5 0.00 0.00 0.00 85 1019.6
20260507141543 15 360 4.8 24.1 0.00 0.00 0.00 85 1019.6
20260507141427 14 360 4.8 24.1 0.00 0.00 0.00 85 1019.6
20260507141327 14 360 6.4 24.1 0.00 0.00 0.00 86 1019.5
20260507141248 14 360 9.7 25.7 0.00 0.00 0.00 85 1019.5
20260507141127 14 360 12.9 25.7 0.00 0.00 0.00 85 1019.3
20260507141028 14 360 14.5 25.7 0.00 0.00 0.00 86 1019.4
20260507140928 14 360 14.5 25.7 0.00 0.00 0.00 86 1019.2
20260507140849 14 360 12.9 25.7 0.00 0.00 0.00 85 1019.1
20260507140748 14 360 12.9 25.7 0.00 0.00 0.00 85 1019.2
20260507140632 14 360 14.5 25.7 0.00 0.00 0.00 85 1019.0
20260507140533 14 360 16.1 25.7 0.00 0.00 0.00 85 1019.1